Wetterdaten: Dienstag, 20.11.2018
Datum Zeit Temp. Aussen Temp. o. S. +5cm Feuchte Auss Luftdruck Regen Sonnenschein Regendauer Solar Windben Empfang
20.11.2018 00:00 2,7 C 2,2 C 1,7 C 84 % 1011,6 hPa 0,0 l/m 0 min 0 min 0 W/m 16,1 km/h (3 Bft) 100,00 %
20.11.2018 00:02 2,7 C 2,2 C 1,7 C 84 % 1011,6 hPa 0,0 l/m 0 min 0 min 0 W/m 16,1 km/h (3 Bft) 100,00 %
20.11.2018 00:04 2,7 C 2,2 C 1,7 C 84 % 1011,5 hPa 0,0 l/m 0 min 0 min 0 W/m 16,1 km/h (3 Bft) 100,00 %
20.11.2018 00:08 2,6 C 2,2 C 1,7 C 84 % 1011,5 hPa 0,0 l/m 0 min 0 min 0 W/m 12,9 km/h (3 Bft) 100,00 %
20.11.2018 00:10 2,6 C 2,2 C 1,7 C 84 % 1011,6 hPa 0,0 l/m 0 min 0 min 0 W/m 12,9 km/h (3 Bft) 97,87 %
20.11.2018 00:12 2,6 C 2,2 C 1,7 C 84 % 1011,6 hPa 0,0 l/m 0 min 0 min 0 W/m 12,9 km/h (3 Bft) 100,00 %
20.11.2018 00:14 2,6 C 2,2 C 1,7 C 84 % 1011,5 hPa 0,0 l/m 0 min 0 min 0 W/m 12,9 km/h (3 Bft) 100,00 %
20.11.2018 00:16 2,6 C 1,7 C 1,7 C 84 % 1011,6 hPa 0,0 l/m 0 min 0 min 0 W/m 12,9 km/h (3 Bft) 100,00 %
20.11.2018 00:18 2,6 C 1,7 C 1,7 C 84 % 1011,5 hPa 0,0 l/m 0 min 0 min 0 W/m 9,7 km/h (2 Bft) 100,00 %
20.11.2018 00:20 2,6 C 1,7 C 1,7 C 84 % 1011,5 hPa 0,0 l/m 0 min 0 min 0 W/m 9,7 km/h (2 Bft) 100,00 %
20.11.2018 00:22 2,5 C 1,7 C 1,7 C 84 % 1011,5 hPa 0,0 l/m 0 min 0 min 0 W/m 9,7 km/h (2 Bft) 100,00 %
20.11.2018 00:24 2,5 C 1,7 C 1,1 C 84 % 1011,5 hPa 0,0 l/m 0 min 0 min 0 W/m 9,7 km/h (2 Bft) 100,00 %
20.11.2018 00:26 2,5 C 1,7 C 1,1 C 84 % 1011,4 hPa 0,0 l/m 0 min 0 min 0 W/m 12,9 km/h (3 Bft) 100,00 %
20.11.2018 00:28 2,4 C 1,7 C 1,1 C 84 % 1011,4 hPa 0,0 l/m 0 min 0 min 0 W/m 12,9 km/h (3 Bft) 100,00 %
20.11.2018 00:30 2,4 C 1,7 C 1,1 C 84 % 1011,5 hPa 0,0 l/m 0 min 0 min 0 W/m 6,4 km/h (2 Bft) 100,00 %
20.11.2018 00:32 2,4 C 1,7 C 1,1 C 84 % 1011,4 hPa 0,0 l/m 0 min 0 min 0 W/m 9,7 km/h (2 Bft) 100,00 %
20.11.2018 00:34 2,4 C 1,7 C 1,1 C 84 % 1011,3 hPa 0,0 l/m 0 min 0 min 0 W/m 19,3 km/h (3 Bft) 100,00 %
20.11.2018 00:36 2,4 C 1,7 C 1,1 C 84 % 1011,3 hPa 0,0 l/m 0 min 0 min 0 W/m 9,7 km/h (2 Bft) 97,87 %
20.11.2018 00:38 2,4 C 1,7 C 1,1 C 84 % 1011,3 hPa 0,0 l/m 0 min 0 min 0 W/m 12,9 km/h (3 Bft) 100,00 %
20.11.2018 00:40 2,4 C 1,7 C 1,1 C 84 % 1011,3 hPa 0,0 l/m 0 min 0 min 0 W/m 9,7 km/h (2 Bft) 100,00 %
20.11.2018 00:42 2,4 C 1,7 C 1,1 C 84 % 1011,3 hPa 0,0 l/m 0 min 0 min 0 W/m 12,9 km/h (3 Bft) 100,00 %
20.11.2018 00:44 2,4 C 1,7 C 1,1 C 84 % 1011,2 hPa 0,0 l/m 0 min 0 min 0 W/m 9,7 km/h (2 Bft) 97,87 %
20.11.2018 00:46 2,3 C 1,7 C 1,1 C 84 % 1011,2 hPa 0,0 l/m 0 min 0 min 0 W/m 9,7 km/h (2 Bft) 100,00 %
20.11.2018 00:48 2,3 C 1,7 C 1,1 C 84 % 1011,1 hPa 0,0 l/m 0 min 0 min 0 W/m 9,7 km/h (2 Bft) 100,00 %
20.11.2018 00:50 2,3 C 1,7 C 1,1 C 84 % 1011,1 hPa 0,0 l/m 0 min 0 min 0 W/m 12,9 km/h (3 Bft) 100,00 %
20.11.2018 00:52 2,3 C 1,7 C 1,1 C 85 % 1011,1 hPa 0,0 l/m 0 min 0 min 0 W/m 12,9 km/h (3 Bft) 100,00 %
20.11.2018 00:54 2,3 C 1,7 C 1,1 C 85 % 1011,1 hPa 0,0 l/m 0 min 0 min 0 W/m 16,1 km/h (3 Bft) 100,00 %
20.11.2018 00:56 2,3 C 1,7 C 1,1 C 85 % 1011,0 hPa 0,0 l/m 0 min 0 min 0 W/m 12,9 km/h (3 Bft) 100,00 %
20.11.2018 00:58 2,3 C 2,2 C 1,1 C 85 % 1011,0 hPa 0,0 l/m 0 min 0 min 0 W/m 16,1 km/h (3 Bft) 100,00 %
20.11.2018 01:00 2,3 C 2,2 C 1,7 C 85 % 1011,1 hPa 0,0 l/m 0 min 0 min 0 W/m 16,1 km/h (3 Bft) 100,00 %
20.11.2018 01:02 2,4 C 2,2 C 1,7 C 85 % 1011,0 hPa 0,0 l/m 0 min 0 min 0 W/m 32,2 km/h (5 Bft) 97,83 %
20.11.2018 01:04 2,4 C 2,2 C 1,7 C 84 % 1011,0 hPa 0,0 l/m 0 min 0 min 0 W/m 19,3 km/h (3 Bft) 100,00 %
20.11.2018 01:06 2,4 C 2,2 C 1,7 C 84 % 1011,0 hPa 0,0 l/m 0 min 0 min 0 W/m 19,3 km/h (3 Bft) 97,87 %
20.11.2018 01:08 2,4 C 2,2 C 1,7 C 84 % 1011,0 hPa 0,0 l/m 0 min 0 min 0 W/m 9,7 km/h (2 Bft) 100,00 %
20.11.2018 01:10 2,4 C 2,2 C 1,7 C 84 % 1011,0 hPa 0,0 l/m 0 min 0 min 0 W/m 16,1 km/h (3 Bft) 93,62 %
20.11.2018 01:12 2,5 C 2,2 C 1,7 C 84 % 1011,0 hPa 0,0 l/m 0 min 0 min 0 W/m 19,3 km/h (3 Bft) 97,83 %
20.11.2018 01:14 2,5 C 2,2 C 1,7 C 84 % 1010,9 hPa 0,0 l/m 0 min 0 min 0 W/m 12,9 km/h (3 Bft) 97,87 %
20.11.2018 01:16 2,5 C 2,2 C 1,7 C 84 % 1010,9 hPa 0,0 l/m 0 min 0 min 0 W/m 16,1 km/h (3 Bft) 95,74 %
20.11.2018 01:18 2,5 C 2,2 C 1,7 C 84 % 1010,8 hPa 0,0 l/m 0 min 0 min 0 W/m 12,9 km/h (3 Bft) 95,74 %
20.11.2018 01:20 2,5 C 2,2 C 1,7 C 84 % 1010,9 hPa 0,0 l/m 0 min 0 min 0 W/m 12,9 km/h (3 Bft) 95,74 %
20.11.2018 01:22 2,5 C 2,2 C 1,7 C 83 % 1010,9 hPa 0,0 l/m 0 min 0 min 0 W/m 22,5 km/h (4 Bft) 97,87 %
20.11.2018 01:24 2,6 C 2,2 C 1,7 C 83 % 1010,9 hPa 0,0 l/m 0 min 0 min 0 W/m 12,9 km/h (3 Bft) 95,65 %
20.11.2018 01:26 2,6 C 2,2 C 1,7 C 83 % 1010,8 hPa 0,0 l/m 0 min 0 min 0 W/m 16,1 km/h (3 Bft) 95,74 %
20.11.2018 01:28 2,6 C 2,2 C 1,7 C 83 % 1010,8 hPa 0,0 l/m 0 min 0 min 0 W/m 16,1 km/h (3 Bft) 95,74 %
20.11.2018 01:30 2,6 C 2,2 C 1,7 C 83 % 1010,6 hPa 0,0 l/m 0 min 0 min 0 W/m 19,3 km/h (3 Bft) 95,74 %
20.11.2018 01:32 2,6 C 2,2 C 1,7 C 83 % 1010,6 hPa 0,0 l/m 0 min 0 min 0 W/m 22,5 km/h (4 Bft) 93,62 %
20.11.2018 01:34 2,6 C 2,2 C 1,7 C 83 % 1010,7 hPa 0,0 l/m 0 min 0 min 0 W/m 16,1 km/h (3 Bft) 95,74 %
20.11.2018 01:36 2,7 C 2,2 C 1,7 C 82 % 1010,6 hPa 0,0 l/m 0 min 0 min 0 W/m 16,1 km/h (3 Bft) 95,65 %
20.11.2018 01:38 2,7 C 2,2 C 1,7 C 82 % 1010,6 hPa 0,0 l/m 0 min 0 min 0 W/m 12,9 km/h (3 Bft) 95,74 %
20.11.2018 01:40 2,7 C 2,2 C 1,7 C 82 % 1010,6 hPa 0,0 l/m 0 min 0 min 0 W/m 19,3 km/h (3 Bft) 95,74 %
20.11.2018 01:42 2,7 C 2,2 C 1,7 C 82 % 1010,6 hPa 0,0 l/m 0 min 0 min 0 W/m 19,3 km/h (3 Bft) 93,62 %
20.11.2018 01:44 2,7 C 2,2 C 1,7 C 82 % 1010,6 hPa 0,0 l/m 0 min 0 min 0 W/m 16,1 km/h (3 Bft) 95,74 %
20.11.2018 01:46 2,7 C 2,2 C 1,7 C 82 % 1010,6 hPa 0,0 l/m 0 min 0 min 0 W/m 16,1 km/h (3 Bft) 93,62 %
20.11.2018 01:48 2,7 C 2,2 C 1,7 C 81 % 1010,6 hPa 0,0 l/m 0 min 0 min 0 W/m 12,9 km/h (3 Bft) 93,48 %
20.11.2018 01:50 2,7 C 2,2 C 1,7 C 81 % 1010,6 hPa 0,0 l/m 0 min 0 min 0 W/m 22,5 km/h (4 Bft) 93,62 %
20.11.2018 01:52 2,7 C 2,2 C 1,7 C 81 % 1010,6 hPa 0,0 l/m 0 min 0 min 0 W/m 25,7 km/h (4 Bft) 93,62 %
20.11.2018 01:54 2,7 C 2,2 C 1,7 C 81 % 1010,5 hPa 0,0 l/m 0 min 0 min 0 W/m 16,1 km/h (3 Bft) 89,36 %
20.11.2018 01:56 2,7 C 2,2 C 1,7 C 81 % 1010,5 hPa 0,0 l/m 0 min 0 min 0 W/m 29,0 km/h (5 Bft) 93,62 %
20.11.2018 01:58 2,7 C 2,2 C 1,7 C 80 % 1010,5 hPa 0,0 l/m 0 min 0 min 0 W/m 16,1 km/h (3 Bft) 93,62 %
20.11.2018 02:00 2,7 C 2,2 C 1,7 C 80 % 1010,5 hPa 0,0 l/m 0 min 0 min 0 W/m 16,1 km/h (3 Bft) 93,48 %
20.11.2018 02:02 2,7 C 2,2 C 1,7 C 80 % 1010,5 hPa 0,0 l/m 0 min 0 min 0 W/m 16,1 km/h (3 Bft) 91,49 %
20.11.2018 02:04 2,7 C 2,2 C 1,7 C 80 % 1010,4 hPa 0,0 l/m 0 min 0 min 0 W/m 16,1 km/h (3 Bft) 93,62 %
20.11.2018 02:06 2,7 C 2,2 C 1,7 C 80 % 1010,5 hPa 0,0 l/m 0 min 0 min 0 W/m 12,9 km/h (3 Bft) 93,62 %
20.11.2018 02:08 2,7 C 2,2 C 1,7 C 80 % 1010,5 hPa 0,0 l/m 0 min 0 min 0 W/m 25,7 km/h (4 Bft) 95,74 %
20.11.2018 02:10 2,6 C 2,2 C 1,7 C 79 % 1010,5 hPa 0,0 l/m 0 min 0 min 0 W/m 25,7 km/h (4 Bft) 97,87 %
20.11.2018 02:12 2,6 C 2,2 C 1,7 C 79 % 1010,5 hPa 0,0 l/m 0 min 0 min 0 W/m 25,7 km/h (4 Bft) 95,65 %
20.11.2018 02:14 2,6 C 2,2 C 1,7 C 79 % 1010,5 hPa 0,0 l/m 0 min 0 min 0 W/m 16,1 km/h (3 Bft) 97,87 %
20.11.2018 02:16 2,6 C 1,7 C 1,7 C 79 % 1010,5 hPa 0,0 l/m 0 min 0 min 0 W/m 12,9 km/h (3 Bft) 95,74 %
20.11.2018 02:18 2,6 C 1,7 C 1,7 C 79 % 1010,5 hPa 0,0 l/m 0 min 0 min 0 W/m 16,1 km/h (3 Bft) 95,74 %
20.11.2018 02:20 2,5 C 1,7 C 1,7 C 79 % 1010,4 hPa 0,0 l/m 0 min 0 min 0 W/m 19,3 km/h (3 Bft) 97,87 %
20.11.2018 02:22 2,5 C 1,7 C 1,7 C 79 % 1010,5 hPa 0,0 l/m 0 min 0 min 0 W/m 19,3 km/h (3 Bft) 97,83 %
20.11.2018 02:24 2,5 C 1,7 C 1,7 C 78 % 1010,4 hPa 0,0 l/m 0 min 0 min 0 W/m 16,1 km/h (3 Bft) 97,87 %
20.11.2018 02:26 2,4 C 1,7 C 1,7 C 78 % 1010,5 hPa 0,0 l/m 0 min 0 min 0 W/m 12,9 km/h (3 Bft) 97,87 %
20.11.2018 02:28 2,4 C 1,7 C 1,7 C 78 % 1010,4 hPa 0,0 l/m 0 min 0 min 0 W/m 16,1 km/h (3 Bft) 95,74 %
20.11.2018 02:30 2,4 C 1,7 C 1,7 C 78 % 1010,4 hPa 0,0 l/m 0 min 0 min 0 W/m 16,1 km/h (3 Bft) 95,74 %
20.11.2018 02:32 2,4 C 1,7 C 1,7 C 78 % 1010,3 hPa 0,0 l/m 0 min 0 min 0 W/m 29,0 km/h (5 Bft) 100,00 %
20.11.2018 02:34 2,3 C 1,7 C 1,7 C 78 % 1010,3 hPa 0,0 l/m 0 min 0 min 0 W/m 19,3 km/h (3 Bft) 97,83 %
20.11.2018 02:36 2,3 C 1,7 C 1,7 C 78 % 1010,3 hPa 0,0 l/m 0 min 0 min 0 W/m 12,9 km/h (3 Bft) 100,00 %
20.11.2018 02:38 2,3 C 1,7 C 1,7 C 78 % 1010,3 hPa 0,0 l/m 0 min 0 min 0 W/m 19,3 km/h (3 Bft) 98,11 %
20.11.2018 02:40 2,3 C 1,7 C 1,1 C 78 % 1010,2 hPa 0,0 l/m 0 min 0 min 0 W/m 19,3 km/h (3 Bft) 100,00 %
20.11.2018 02:42 2,3 C 1,7 C 1,1 C 78 % 1010,2 hPa 0,0 l/m 0 min 0 min 0 W/m 19,3 km/h (3 Bft) 100,00 %
20.11.2018 02:44 2,2 C 1,7 C 1,1 C 78 % 1010,1 hPa 0,0 l/m 0 min 0 min 0 W/m 22,5 km/h (4 Bft) 100,00 %
20.11.2018 02:46 2,2 C 1,7 C 1,7 C 78 % 1010,2 hPa 0,0 l/m 0 min 0 min 0 W/m 16,1 km/h (3 Bft) 97,83 %
20.11.2018 02:48 2,2 C 1,7 C 1,1 C 78 % 1010,1 hPa 0,0 l/m 0 min 0 min 0 W/m 12,9 km/h (3 Bft) 100,00 %
20.11.2018 02:50 2,2 C 1,7 C 1,1 C 78 % 1010,2 hPa 0,0 l/m 0 min 0 min 0 W/m 25,7 km/h (4 Bft) 100,00 %
20.11.2018 02:52 2,2 C 1,7 C 1,1 C 78 % 1010,1 hPa 0,0 l/m 0 min 0 min 0 W/m 22,5 km/h (4 Bft) 97,87 %
20.11.2018 02:54 2,2 C 1,7 C 1,1 C 78 % 1010,2 hPa 0,0 l/m 0 min 0 min 0 W/m 16,1 km/h (3 Bft) 100,00 %
20.11.2018 02:56 2,2 C 1,7 C 1,1 C 78 % 1010,1 hPa 0,0 l/m 0 min 0 min 0 W/m 25,7 km/h (4 Bft) 100,00 %
20.11.2018 02:58 2,2 C 1,7 C 1,1 C 78 % 1010,0 hPa 0,0 l/m 0 min 0 min 0 W/m 12,9 km/h (3 Bft) 100,00 %
20.11.2018 03:00 2,2 C 1,7 C 1,1 C 78 % 1009,9 hPa 0,0 l/m 0 min 0 min 0 W/m 19,3 km/h (3 Bft) 100,00 %
20.11.2018 03:02 2,1 C 1,7 C 1,1 C 78 % 1009,9 hPa 0,0 l/m 0 min 0 min 0 W/m 16,1 km/h (3 Bft) 100,00 %
20.11.2018 03:04 2,1 C 1,7 C 1,1 C 78 % 1010,0 hPa 0,0 l/m 0 min 0 min 0 W/m 22,5 km/h (4 Bft) 100,00 %
20.11.2018 03:06 2,1 C 1,7 C 1,1 C 78 % 1009,8 hPa 0,0 l/m 0 min 0 min 0 W/m 12,9 km/h (3 Bft) 100,00 %
20.11.2018 03:08 2,1 C 1,7 C 1,1 C 78 % 1009,7 hPa 0,0 l/m 0 min 0 min 0 W/m 22,5 km/h (4 Bft) 100,00 %
20.11.2018 03:10 2,1 C 1,7 C 1,1 C 79 % 1009,7 hPa 0,0 l/m 0 min 0 min 0 W/m 12,9 km/h (3 Bft) 100,00 %
20.11.2018 03:12 2,1 C 1,7 C 1,1 C 79 % 1009,6 hPa 0,0 l/m 0 min 0 min 0 W/m 19,3 km/h (3 Bft) 98,15 %
20.11.2018 03:14 2,1 C 1,7 C 1,1 C 79 % 1009,6 hPa 0,0 l/m 0 min 0 min 0 W/m 25,7 km/h (4 Bft) 100,00 %
20.11.2018 03:16 2,1 C 1,7 C 1,1 C 79 % 1009,6 hPa 0,0 l/m 0 min 0 min 0 W/m 22,5 km/h (4 Bft) 100,00 %
20.11.2018 03:18 2,1 C 1,7 C 1,1 C 79 % 1009,7 hPa 0,0 l/m 0 min 0 min 0 W/m 16,1 km/h (3 Bft) 100,00 %
20.11.2018 03:20 2,1 C 1,7 C 1,1 C 79 % 1009,6 hPa 0,0 l/m 0 min 0 min 0 W/m 16,1 km/h (3 Bft) 100,00 %
20.11.2018 03:22 2,1 C 1,7 C 1,1 C 79 % 1009,5 hPa 0,0 l/m 0 min 0 min 0 W/m 12,9 km/h (3 Bft) 100,00 %
20.11.2018 03:24 2,1 C 1,7 C 1,1 C 79 % 1009,5 hPa 0,0 l/m 0 min 0 min 0 W/m 12,9 km/h (3 Bft) 95,74 %
20.11.2018 03:26 2,1 C 1,7 C 1,1 C 79 % 1009,5 hPa 0,0 l/m 0 min 0 min 0 W/m 12,9 km/h (3 Bft) 100,00 %
20.11.2018 03:28 2,1 C 1,7 C 1,1 C 79 % 1009,5 hPa 0,0 l/m 0 min 0 min 0 W/m 16,1 km/h (3 Bft) 97,83 %
20.11.2018 03:30 2,0 C 1,7 C 1,1 C 79 % 1009,5 hPa 0,0 l/m 0 min 0 min 0 W/m 16,1 km/h (3 Bft) 100,00 %
20.11.2018 03:32 2,0 C 1,7 C 1,1 C 79 % 1009,5 hPa 0,0 l/m 0 min 0 min 0 W/m 16,1 km/h (3 Bft) 100,00 %
20.11.2018 03:34 2,0 C 1,7 C 1,1 C 79 % 1009,5 hPa 0,0 l/m 0 min 0 min 0 W/m 12,9 km/h (3 Bft) 97,87 %
20.11.2018 03:36 2,0 C 1,7 C 1,1 C 79 % 1009,5 hPa 0,0 l/m 0 min 0 min 0 W/m 19,3 km/h (3 Bft) 97,87 %
20.11.2018 03:38 2,0 C 1,7 C 1,1 C 79 % 1009,6 hPa 0,0 l/m 0 min 0 min 0 W/m 12,9 km/h (3 Bft) 97,83 %
20.11.2018 03:40 2,0 C 1,1 C 1,1 C 79 % 1009,5 hPa 0,0 l/m 0 min 0 min 0 W/m 12,9 km/h (3 Bft) 100,00 %
20.11.2018 03:42 2,0 C 1,1 C 1,1 C 80 % 1009,6 hPa 0,0 l/m 0 min 0 min 0 W/m 9,7 km/h (2 Bft) 100,00 %
20.11.2018 03:44 1,9 C 1,1 C 1,1 C 80 % 1009,6 hPa 0,0 l/m 0 min 0 min 0 W/m 9,7 km/h (2 Bft) 100,00 %
20.11.2018 03:46 1,9 C 1,1 C 1,1 C 80 % 1009,5 hPa 0,0 l/m 0 min 0 min 0 W/m 12,9 km/h (3 Bft) 97,87 %
20.11.2018 03:48 1,9 C 1,1 C 1,1 C 80 % 1009,5 hPa 0,0 l/m 0 min 0 min 0 W/m 16,1 km/h (3 Bft) 97,87 %
20.11.2018 03:50 1,9 C 1,1 C 1,1 C 80 % 1009,4 hPa 0,0 l/m 0 min 0 min 0 W/m 16,1 km/h (3 Bft) 100,00 %
20.11.2018 03:52 1,9 C 1,1 C 1,1 C 80 % 1009,3 hPa 0,0 l/m 0 min 0 min 0 W/m 19,3 km/h (3 Bft) 100,00 %
20.11.2018 03:54 1,9 C 1,1 C 1,1 C 80 % 1009,4 hPa 0,0 l/m 0 min 0 min 0 W/m 16,1 km/h (3 Bft) 97,87 %
20.11.2018 03:56 1,9 C 1,1 C 1,1 C 80 % 1009,3 hPa 0,0 l/m 0 min 0 min 0 W/m 12,9 km/h (3 Bft) 95,74 %
20.11.2018 03:58 1,9 C 1,1 C 1,1 C 80 % 1009,3 hPa 0,0 l/m 0 min 0 min 0 W/m 19,3 km/h (3 Bft) 95,74 %
20.11.2018 04:00 1,9 C 1,1 C 1,1 C 80 % 1009,2 hPa 0,0 l/m 0 min 0 min 0 W/m 16,1 km/h (3 Bft) 97,87 %
20.11.2018 04:06 1,8 C 1,1 C 1,1 C 80 % 1009,2 hPa 0,0 l/m 0 min 0 min 0 W/m 12,9 km/h (3 Bft) 100,00 %
20.11.2018 04:08 1,8 C 1,1 C 1,1 C 80 % 1009,1 hPa 0,0 l/m 0 min 0 min 0 W/m 16,1 km/h (3 Bft) 100,00 %
20.11.2018 04:10 1,8 C 1,1 C 1,1 C 80 % 1009,2 hPa 0,0 l/m 0 min 0 min 0 W/m 16,1 km/h (3 Bft) 97,87 %
20.11.2018 04:12 1,8 C 1,1 C 1,1 C 80 % 1009,3 hPa 0,0 l/m 0 min 0 min 0 W/m 25,7 km/h (4 Bft) 97,87 %
20.11.2018 04:14 1,8 C 1,1 C 1,1 C 80 % 1009,2 hPa 0,0 l/m 0 min 0 min 0 W/m 12,9 km/h (3 Bft) 97,83 %
20.11.2018 04:16 1,8 C 1,1 C 1,1 C 81 % 1009,2 hPa 0,0 l/m 0 min 0 min 0 W/m 16,1 km/h (3 Bft) 97,87 %
20.11.2018 04:18 1,8 C 1,7 C 1,1 C 81 % 1009,1 hPa 0,0 l/m 0 min 0 min 0 W/m 16,1 km/h (3 Bft) 97,87 %
20.11.2018 04:20 1,8 C 1,7 C 1,1 C 81 % 1009,2 hPa 0,0 l/m 0 min 0 min 0 W/m 19,3 km/h (3 Bft) 100,00 %
20.11.2018 04:22 1,8 C 1,7 C 1,1 C 81 % 1009,2 hPa 0,0 l/m 0 min 0 min 0 W/m 16,1 km/h (3 Bft) 97,87 %
20.11.2018 04:24 1,9 C 1,7 C 1,1 C 81 % 1009,2 hPa 0,0 l/m 0 min 0 min 0 W/m 22,5 km/h (4 Bft) 95,74 %
20.11.2018 04:26 1,9 C 1,7 C 1,1 C 81 % 1009,2 hPa 0,0 l/m 0 min 0 min 0 W/m 19,3 km/h (3 Bft) 97,83 %
20.11.2018 04:28 1,9 C 1,7 C 1,1 C 81 % 1009,1 hPa 0,0 l/m 0 min 0 min 0 W/m 19,3 km/h (3 Bft) 97,87 %
20.11.2018 04:30 1,9 C 1,7 C 1,1 C 80 % 1009,1 hPa 0,0 l/m 0 min 0 min 0 W/m 19,3 km/h (3 Bft) 93,62 %
20.11.2018 04:32 2,0 C 1,7 C 1,1 C 80 % 1009,1 hPa 0,0 l/m 0 min 0 min 0 W/m 12,9 km/h (3 Bft) 97,87 %
20.11.2018 04:34 2,0 C 1,7 C 1,1 C 81 % 1009,0 hPa 0,0 l/m 0 min 0 min 0 W/m 22,5 km/h (4 Bft) 95,74 %
20.11.2018 04:36 2,0 C 1,7 C 1,1 C 80 % 1009,1 hPa 0,0 l/m 0 min 0 min 0 W/m 16,1 km/h (3 Bft) 95,65 %
20.11.2018 04:38 2,1 C 1,7 C 1,1 C 80 % 1009,1 hPa 0,0 l/m 0 min 0 min 0 W/m 16,1 km/h (3 Bft) 93,62 %
20.11.2018 04:40 2,1 C 1,7 C 1,1 C 80 % 1009,0 hPa 0,0 l/m 0 min 0 min 0 W/m 16,1 km/h (3 Bft) 97,87 %
20.11.2018 04:42 2,1 C 1,7 C 1,7 C 80 % 1009,0 hPa 0,0 l/m 0 min 0 min 0 W/m 12,9 km/h (3 Bft) 97,87 %
20.11.2018 04:44 2,1 C 1,7 C 1,7 C 81 % 1009,0 hPa 0,0 l/m 0 min 0 min 0 W/m 16,1 km/h (3 Bft) 95,74 %
20.11.2018 04:46 2,1 C 1,7 C 1,7 C 81 % 1008,9 hPa 0,0 l/m 0 min 0 min 0 W/m 16,1 km/h (3 Bft) 97,87 %
20.11.2018 04:48 2,1 C 1,7 C 1,7 C 81 % 1008,9 hPa 0,0 l/m 0 min 0 min 0 W/m 16,1 km/h (3 Bft) 97,83 %
20.11.2018 04:50 2,1 C 1,7 C 1,7 C 81 % 1008,9 hPa 0,0 l/m 0 min 0 min 0 W/m 12,9 km/h (3 Bft) 97,87 %
20.11.2018 04:52 2,2 C 1,7 C 1,7 C 81 % 1008,9 hPa 0,0 l/m 0 min 0 min 0 W/m 12,9 km/h (3 Bft) 97,87 %
20.11.2018 04:54 2,2 C 1,7 C 1,7 C 81 % 1008,8 hPa 0,0 l/m 0 min 0 min 0 W/m 19,3 km/h (3 Bft) 97,87 %
20.11.2018 04:56 2,2 C 1,7 C 1,7 C 81 % 1008,9 hPa 0,0 l/m 0 min 0 min 0 W/m 19,3 km/h (3 Bft) 97,87 %
20.11.2018 04:58 2,2 C 1,7 C 1,7 C 81 % 1008,8 hPa 0,0 l/m 0 min 0 min 0 W/m 9,7 km/h (2 Bft) 95,74 %
20.11.2018 05:00 2,2 C 1,7 C 1,7 C 81 % 1008,8 hPa 0,0 l/m 0 min 0 min 0 W/m 12,9 km/h (3 Bft) 95,65 %
20.11.2018 05:02 2,2 C 1,7 C 1,7 C 81 % 1008,8 hPa 0,0 l/m 0 min 0 min 0 W/m 32,2 km/h (5 Bft) 93,62 %
20.11.2018 05:04 2,2 C 1,7 C 1,7 C 81 % 1008,8 hPa 0,0 l/m 0 min 0 min 0 W/m 19,3 km/h (3 Bft) 95,74 %
20.11.2018 05:06 2,2 C 1,7 C 1,7 C 81 % 1008,7 hPa 0,0 l/m 0 min 0 min 0 W/m 22,5 km/h (4 Bft) 95,74 %
20.11.2018 05:08 2,2 C 1,7 C 1,7 C 81 % 1008,7 hPa 0,0 l/m 0 min 0 min 0 W/m 12,9 km/h (3 Bft) 95,74 %
20.11.2018 05:10 2,2 C 1,7 C 1,7 C 81 % 1008,6 hPa 0,0 l/m 0 min 0 min 0 W/m 16,1 km/h (3 Bft) 95,74 %
20.11.2018 05:12 2,3 C 1,7 C 1,7 C 81 % 1008,6 hPa 0,0 l/m 0 min 0 min 0 W/m 16,1 km/h (3 Bft) 95,65 %
20.11.2018 05:14 2,3 C 1,7 C 1,7 C 81 % 1008,7 hPa 0,0 l/m 0 min 0 min 0 W/m 16,1 km/h (3 Bft) 95,74 %
20.11.2018 05:16 2,3 C 1,7 C 1,7 C 81 % 1008,6 hPa 0,0 l/m 0 min 0 min 0 W/m 12,9 km/h (3 Bft) 95,74 %
20.11.2018 05:18 2,3 C 1,7 C 1,7 C 81 % 1008,6 hPa 0,0 l/m 0 min 0 min 0 W/m 16,1 km/h (3 Bft) 95,74 %
20.11.2018 05:20 2,3 C 2,2 C 1,7 C 81 % 1008,5 hPa 0,0 l/m 0 min 0 min 0 W/m 16,1 km/h (3 Bft) 95,74 %
20.11.2018 05:22 2,3 C 2,2 C 1,7 C 81 % 1008,6 hPa 0,0 l/m 0 min 0 min 0 W/m 16,1 km/h (3 Bft) 97,83 %
20.11.2018 05:24 2,3 C 2,2 C 1,7 C 81 % 1008,6 hPa 0,0 l/m 0 min 0 min 0 W/m 12,9 km/h (3 Bft) 97,87 %
20.11.2018 05:26 2,3 C 2,2 C 1,7 C 81 % 1008,5 hPa 0,0 l/m 0 min 0 min 0 W/m 12,9 km/h (3 Bft) 97,87 %
20.11.2018 05:28 2,3 C 2,2 C 1,7 C 81 % 1008,5 hPa 0,0 l/m 0 min 0 min 0 W/m 19,3 km/h (3 Bft) 97,87 %
20.11.2018 05:30 2,3 C 2,2 C 1,7 C 81 % 1008,5 hPa 0,0 l/m 0 min 0 min 0 W/m 16,1 km/h (3 Bft) 97,87 %
20.11.2018 05:32 2,3 C 2,2 C 1,7 C 81 % 1008,5 hPa 0,0 l/m 0 min 0 min 0 W/m 12,9 km/h (3 Bft) 97,87 %
20.11.2018 05:34 2,3 C 2,2 C 1,7 C 81 % 1008,4 hPa 0,0 l/m 0 min 0 min 0 W/m 16,1 km/h (3 Bft) 97,83 %
20.11.2018 05:36 2,3 C 2,2 C 1,7 C 81 % 1008,4 hPa 0,0 l/m 0 min 0 min 0 W/m 19,3 km/h (3 Bft) 97,87 %
20.11.2018 05:38 2,4 C 2,2 C 1,7 C 81 % 1008,4 hPa 0,0 l/m 0 min 0 min 0 W/m 19,3 km/h (3 Bft) 97,87 %
20.11.2018 05:40 2,4 C 2,2 C 1,7 C 81 % 1008,4 hPa 0,0 l/m 0 min 0 min 0 W/m 12,9 km/h (3 Bft) 97,87 %
20.11.2018 05:42 2,4 C 2,2 C 1,7 C 81 % 1008,3 hPa 0,0 l/m 0 min 0 min 0 W/m 16,1 km/h (3 Bft) 97,87 %
20.11.2018 05:44 2,4 C 2,2 C 1,7 C 81 % 1008,3 hPa 0,0 l/m 0 min 0 min 0 W/m 12,9 km/h (3 Bft) 97,87 %
20.11.2018 05:46 2,4 C 2,2 C 1,7 C 81 % 1008,2 hPa 0,0 l/m 0 min 0 min 0 W/m 12,9 km/h (3 Bft) 97,83 %
20.11.2018 05:48 2,4 C 2,2 C 1,7 C 81 % 1008,2 hPa 0,0 l/m 0 min 0 min 0 W/m 16,1 km/h (3 Bft) 97,87 %
20.11.2018 05:50 2,4 C 2,2 C 1,7 C 81 % 1008,1 hPa 0,0 l/m 0 min 0 min 0 W/m 12,9 km/h (3 Bft) 97,87 %
20.11.2018 05:52 2,4 C 2,2 C 1,7 C 81 % 1008,2 hPa 0,0 l/m 0 min 0 min 0 W/m 16,1 km/h (3 Bft) 97,87 %
20.11.2018 05:54 2,4 C 2,2 C 1,7 C 81 % 1008,2 hPa 0,0 l/m 0 min 0 min 0 W/m 12,9 km/h (3 Bft) 95,74 %
20.11.2018 05:56 2,4 C 2,2 C 1,7 C 81 % 1008,2 hPa 0,0 l/m 0 min 0 min 0 W/m 19,3 km/h (3 Bft) 97,87 %
20.11.2018 05:58 2,4 C 2,2 C 1,7 C 81 % 1008,2 hPa 0,0 l/m 0 min 0 min 0 W/m 12,9 km/h (3 Bft) 100,00 %
20.11.2018 06:00 2,4 C 2,2 C 1,7 C 81 % 1008,2 hPa 0,0 l/m 0 min 0 min 0 W/m 12,9 km/h (3 Bft) 97,87 %
20.11.2018 06:02 2,4 C 2,2 C 1,7 C 81 % 1008,2 hPa 0,0 l/m 0 min 0 min 0 W/m 12,9 km/h (3 Bft) 95,74 %
20.11.2018 06:04 2,4 C 2,2 C 1,7 C 81 % 1008,1 hPa 0,0 l/m 0 min 0 min 0 W/m 16,1 km/h (3 Bft) 89,36 %
20.11.2018 06:08 2,5 C 2,2 C 1,7 C 81 % 1008,1 hPa 0,0 l/m 0 min 0 min 0 W/m 16,1 km/h (3 Bft) 100,00 %
20.11.2018 06:10 2,5 C 2,2 C 1,7 C 81 % 1008,1 hPa 0,0 l/m 0 min 0 min 0 W/m 9,7 km/h (2 Bft) 95,65 %
20.11.2018 06:12 2,5 C 2,2 C 1,7 C 81 % 1008,1 hPa 0,0 l/m 0 min 0 min 0 W/m 12,9 km/h (3 Bft) 97,87 %
20.11.2018 06:14 2,5 C 2,2 C 1,7 C 81 % 1008,2 hPa 0,0 l/m 0 min 0 min 0 W/m 16,1 km/h (3 Bft) 100,00 %
20.11.2018 06:16 2,5 C 2,2 C 1,7 C 81 % 1008,3 hPa 0,0 l/m 0 min 0 min 0 W/m 9,7 km/h (2 Bft) 100,00 %
20.11.2018 06:18 2,5 C 2,2 C 1,7 C 81 % 1008,2 hPa 0,0 l/m 0 min 0 min 0 W/m 12,9 km/h (3 Bft) 100,00 %
20.11.2018 06:20 2,5 C 2,2 C 1,7 C 81 % 1008,2 hPa 0,0 l/m 0 min 0 min 0 W/m 9,7 km/h (2 Bft) 97,87 %
20.11.2018 06:22 2,6 C 2,2 C 1,7 C 81 % 1008,2 hPa 0,0 l/m 0 min 0 min 0 W/m 12,9 km/h (3 Bft) 97,83 %
20.11.2018 06:24 2,6 C 2,2 C 1,7 C 81 % 1008,2 hPa 0,0 l/m 0 min 0 min 0 W/m 12,9 km/h (3 Bft) 100,00 %
20.11.2018 06:26 2,6 C 2,2 C 1,7 C 81 % 1008,2 hPa 0,0 l/m 0 min 0 min 0 W/m 12,9 km/h (3 Bft) 97,87 %
20.11.2018 06:28 2,6 C 2,2 C 1,7 C 81 % 1008,2 hPa 0,0 l/m 0 min 0 min 0 W/m 9,7 km/h (2 Bft) 100,00 %
20.11.2018 06:30 2,6 C 2,2 C 1,7 C 81 % 1008,1 hPa 0,0 l/m 0 min 0 min 0 W/m 9,7 km/h (2 Bft) 100,00 %
20.11.2018 06:32 2,6 C 2,2 C 1,7 C 81 % 1008,2 hPa 0,0 l/m 0 min 0 min 0 W/m 9,7 km/h (2 Bft) 95,74 %
20.11.2018 06:34 2,6 C 2,2 C 1,7 C 81 % 1008,1 hPa 0,0 l/m 0 min 0 min 0 W/m 12,9 km/h (3 Bft) 97,83 %
20.11.2018 06:36 2,6 C 2,2 C 1,7 C 81 % 1008,1 hPa 0,0 l/m 0 min 0 min 0 W/m 12,9 km/h (3 Bft) 97,87 %
20.11.2018 06:38 2,6 C 2,2 C 1,7 C 81 % 1008,2 hPa 0,0 l/m 0 min 0 min 0 W/m 9,7 km/h (2 Bft) 97,87 %
20.11.2018 06:40 2,6 C 2,2 C 1,7 C 81 % 1008,1 hPa 0,0 l/m 0 min 0 min 0 W/m 9,7 km/h (2 Bft) 97,87 %
20.11.2018 06:42 2,6 C 2,2 C 1,7 C 81 % 1008,1 hPa 0,0 l/m 0 min 0 min 0 W/m 9,7 km/h (2 Bft) 97,87 %
20.11.2018 06:44 2,6 C 2,2 C 1,7 C 81 % 1008,1 hPa 0,0 l/m 0 min 0 min 0 W/m 12,9 km/h (3 Bft) 95,65 %
20.11.2018 06:46 2,6 C 2,2 C 1,7 C 81 % 1008,1 hPa 0,0 l/m 0 min 0 min 0 W/m 12,9 km/h (3 Bft) 97,87 %
20.11.2018 06:48 2,6 C 2,2 C 1,7 C 81 % 1008,2 hPa 0,0 l/m 0 min 0 min 0 W/m 9,7 km/h (2 Bft) 97,87 %
20.11.2018 06:50 2,6 C 2,2 C 1,7 C 81 % 1008,2 hPa 0,0 l/m 0 min 0 min 0 W/m 12,9 km/h (3 Bft) 97,87 %
20.11.2018 06:52 2,6 C 2,2 C 1,7 C 81 % 1008,2 hPa 0,0 l/m 0 min 0 min 0 W/m 12,9 km/h (3 Bft) 97,87 %
20.11.2018 06:54 2,6 C 2,2 C 1,7 C 81 % 1008,1 hPa 0,0 l/m 0 min 0 min 0 W/m 16,1 km/h (3 Bft) 97,87 %
20.11.2018 06:56 2,6 C 2,2 C 1,7 C 81 % 1008,1 hPa 0,0 l/m 0 min 0 min 0 W/m 9,7 km/h (2 Bft) 100,00 %
20.11.2018 06:58 2,6 C 2,2 C 1,7 C 81 % 1008,2 hPa 0,0 l/m 0 min 0 min 0 W/m 12,9 km/h (3 Bft) 97,87 %
20.11.2018 07:00 2,6 C 2,2 C 1,7 C 81 % 1008,1 hPa 0,0 l/m 0 min 0 min 0 W/m 12,9 km/h (3 Bft) 97,87 %
20.11.2018 07:02 2,6 C 2,2 C 1,7 C 81 % 1008,0 hPa 0,0 l/m 0 min 0 min 0 W/m 12,9 km/h (3 Bft) 97,87 %
20.11.2018 07:04 2,6 C 2,2 C 1,7 C 81 % 1008,0 hPa 0,0 l/m 0 min 0 min 0 W/m 16,1 km/h (3 Bft) 95,74 %
20.11.2018 07:06 2,6 C 2,2 C 1,7 C 81 % 1007,9 hPa 0,0 l/m 0 min 0 min 0 W/m 12,9 km/h (3 Bft) 97,87 %
20.11.2018 07:08 2,6 C 2,2 C 1,7 C 81 % 1007,9 hPa 0,0 l/m 0 min 0 min 0 W/m 12,9 km/h (3 Bft) 95,65 %
20.11.2018 07:10 2,6 C 2,2 C 1,7 C 81 % 1007,9 hPa 0,0 l/m 0 min 0 min 0 W/m 9,7 km/h (2 Bft) 95,74 %
20.11.2018 07:12 2,6 C 2,2 C 1,7 C 81 % 1007,9 hPa 0,0 l/m 0 min 0 min 0 W/m 16,1 km/h (3 Bft) 95,74 %
20.11.2018 07:14 2,6 C 2,2 C 1,7 C 81 % 1007,9 hPa 0,0 l/m 0 min 0 min 0 W/m 16,1 km/h (3 Bft) 95,74 %
20.11.2018 07:16 2,6 C 2,2 C 1,7 C 81 % 1007,8 hPa 0,0 l/m 0 min 0 min 0 W/m 9,7 km/h (2 Bft) 95,74 %
20.11.2018 07:18 2,6 C 2,2 C 1,7 C 81 % 1007,9 hPa 0,0 l/m 0 min 0 min 0 W/m 9,7 km/h (2 Bft) 97,87 %
20.11.2018 07:20 2,6 C 2,2 C 1,7 C 81 % 1007,9 hPa 0,0 l/m 0 min 0 min 0 W/m 9,7 km/h (2 Bft) 95,65 %
20.11.2018 07:22 2,6 C 2,2 C 1,7 C 81 % 1007,9 hPa 0,0 l/m 0 min 0 min 0 W/m 12,9 km/h (3 Bft) 93,62 %
20.11.2018 07:24 2,6 C 2,2 C 1,7 C 81 % 1007,9 hPa 0,0 l/m 0 min 0 min 0 W/m 12,9 km/h (3 Bft) 95,74 %
20.11.2018 07:26 2,7 C 2,2 C 1,7 C 81 % 1007,9 hPa 0,0 l/m 0 min 0 min 0 W/m 12,9 km/h (3 Bft) 95,74 %
20.11.2018 07:28 2,7 C 2,2 C 1,7 C 81 % 1007,9 hPa 0,0 l/m 0 min 0 min 0 W/m 9,7 km/h (2 Bft) 95,74 %
20.11.2018 07:30 2,7 C 2,2 C 1,7 C 81 % 1007,9 hPa 0,0 l/m 0 min 0 min 0 W/m 12,9 km/h (3 Bft) 97,87 %
20.11.2018 07:32 2,7 C 2,2 C 1,7 C 81 % 1007,8 hPa 0,0 l/m 0 min 0 min 0 W/m 16,1 km/h (3 Bft) 97,83 %
20.11.2018 07:34 2,7 C 2,2 C 1,7 C 81 % 1007,8 hPa 0,0 l/m 0 min 0 min 0 W/m 12,9 km/h (3 Bft) 95,74 %
20.11.2018 07:36 2,7 C 2,2 C 1,7 C 81 % 1007,8 hPa 0,0 l/m 0 min 0 min 0 W/m 12,9 km/h (3 Bft) 100,00 %
20.11.2018 07:38 2,7 C 2,2 C 1,7 C 81 % 1007,9 hPa 0,0 l/m 0 min 0 min 0 W/m 9,7 km/h (2 Bft) 95,83 %
20.11.2018 07:40 2,7 C 2,2 C 1,7 C 81 % 1007,9 hPa 0,0 l/m 0 min 0 min 0 W/m 9,7 km/h (2 Bft) 97,87 %
20.11.2018 07:42 2,7 C 2,2 C 1,7 C 81 % 1007,9 hPa 0,0 l/m 0 min 0 min 0 W/m 9,7 km/h (2 Bft) 97,83 %
20.11.2018 07:44 2,7 C 2,2 C 1,7 C 81 % 1007,9 hPa 0,0 l/m 0 min 0 min 0 W/m 9,7 km/h (2 Bft) 97,87 %
20.11.2018 07:46 2,7 C 2,2 C 1,7 C 81 % 1007,9 hPa 0,0 l/m 0 min 0 min 0 W/m 9,7 km/h (2 Bft) 97,87 %
20.11.2018 07:48 2,7 C 2,2 C 1,7 C 81 % 1007,9 hPa 0,0 l/m 0 min 0 min 0 W/m 12,9 km/h (3 Bft) 97,87 %
20.11.2018 07:50 2,7 C 2,2 C 1,7 C 81 % 1007,9 hPa 0,0 l/m 0 min 0 min 0 W/m 12,9 km/h (3 Bft) 97,87 %
20.11.2018 07:52 2,7 C 2,2 C 1,7 C 82 % 1007,9 hPa 0,0 l/m 0 min 0 min 0 W/m 12,9 km/h (3 Bft) 97,87 %
20.11.2018 07:54 2,6 C 2,2 C 1,7 C 82 % 1007,9 hPa 0,0 l/m 0 min 0 min 0 W/m 12,9 km/h (3 Bft) 97,83 %
20.11.2018 07:56 2,6 C 2,2 C 1,7 C 82 % 1007,9 hPa 0,0 l/m 0 min 0 min 0 W/m 12,9 km/h (3 Bft) 93,62 %
20.11.2018 07:58 2,6 C 2,2 C 1,7 C 82 % 1007,9 hPa 0,0 l/m 0 min 0 min 0 W/m 12,9 km/h (3 Bft) 100,00 %
20.11.2018 08:00 2,6 C 2,2 C 1,7 C 82 % 1008,0 hPa 0,0 l/m 0 min 0 min 0 W/m 16,1 km/h (3 Bft) 100,00 %
20.11.2018 08:02 2,6 C 2,2 C 1,7 C 82 % 1008,0 hPa 0,0 l/m 0 min 0 min 0 W/m 12,9 km/h (3 Bft) 100,00 %
20.11.2018 08:04 2,6 C 2,2 C 1,7 C 82 % 1007,9 hPa 0,0 l/m 0 min 0 min 0 W/m 12,9 km/h (3 Bft) 97,87 %
20.11.2018 08:06 2,6 C 2,2 C 1,7 C 82 % 1007,9 hPa 0,0 l/m 0 min 0 min 0 W/m 12,9 km/h (3 Bft) 97,83 %
20.11.2018 08:08 2,6 C 2,2 C 1,7 C 82 % 1008,0 hPa 0,0 l/m 0 min 0 min 0 W/m 12,9 km/h (3 Bft) 100,00 %
20.11.2018 08:10 2,6 C 2,2 C 1,7 C 82 % 1008,0 hPa 0,0 l/m 0 min 0 min 0 W/m 9,7 km/h (2 Bft) 100,00 %
20.11.2018 08:12 2,6 C 2,2 C 1,7 C 82 % 1008,0 hPa 0,0 l/m 0 min 0 min 0 W/m 16,1 km/h (3 Bft) 100,00 %
20.11.2018 08:14 2,6 C 2,2 C 1,7 C 82 % 1007,9 hPa 0,0 l/m 0 min 0 min 0 W/m 12,9 km/h (3 Bft) 100,00 %
20.11.2018 08:16 2,6 C 2,2 C 1,7 C 82 % 1007,9 hPa 0,0 l/m 0 min 0 min 0 W/m 12,9 km/h (3 Bft) 100,00 %
20.11.2018 08:18 2,6 C 2,2 C 1,7 C 82 % 1007,9 hPa 0,0 l/m 0 min 0 min 0 W/m 16,1 km/h (3 Bft) 97,83 %
20.11.2018 08:20 2,6 C 2,2 C 1,7 C 82 % 1008,0 hPa 0,0 l/m 0 min 0 min 0 W/m 16,1 km/h (3 Bft) 100,00 %
20.11.2018 08:22 2,6 C 2,2 C 1,7 C 82 % 1008,0 hPa 0,0 l/m 0 min 0 min 0 W/m 9,7 km/h (2 Bft) 97,87 %
20.11.2018 08:24 2,6 C 2,2 C 1,7 C 82 % 1007,9 hPa 0,0 l/m 0 min 0 min 0 W/m 16,1 km/h (3 Bft) 100,00 %
20.11.2018 08:26 2,6 C 2,2 C 1,7 C 81 % 1008,0 hPa 0,0 l/m 0 min 0 min 0 W/m 9,7 km/h (2 Bft) 100,00 %
20.11.2018 08:28 2,7 C 2,2 C 1,7 C 81 % 1007,9 hPa 0,0 l/m 0 min 0 min 0 W/m 9,7 km/h (2 Bft) 97,87 %
20.11.2018 08:30 2,6 C 2,2 C 1,7 C 81 % 1008,0 hPa 0,0 l/m 0 min 0 min 4 W/m 6,4 km/h (2 Bft) 100,00 %
20.11.2018 08:32 2,7 C 2,2 C 1,7 C 82 % 1008,0 hPa 0,0 l/m 0 min 0 min 5 W/m 9,7 km/h (2 Bft) 97,87 %
20.11.2018 08:34 2,6 C 2,2 C 1,7 C 82 % 1007,9 hPa 0,0 l/m 0 min 0 min 5 W/m 9,7 km/h (2 Bft) 100,00 %
20.11.2018 08:36 2,7 C 2,2 C 1,7 C 82 % 1007,9 hPa 0,0 l/m 0 min 0 min 5 W/m 12,9 km/h (3 Bft) 95,74 %
20.11.2018 08:38 2,7 C 2,2 C 1,7 C 82 % 1007,9 hPa 0,0 l/m 0 min 0 min 7 W/m 16,1 km/h (3 Bft) 97,92 %
20.11.2018 08:40 2,7 C 2,2 C 1,7 C 82 % 1007,9 hPa 0,0 l/m 0 min 0 min 7 W/m 12,9 km/h (3 Bft) 97,87 %
20.11.2018 08:42 2,7 C 2,2 C 2,2 C 82 % 1007,9 hPa 0,0 l/m 0 min 0 min 7 W/m 9,7 km/h (2 Bft) 95,65 %
20.11.2018 08:44 2,7 C 2,2 C 1,7 C 82 % 1007,9 hPa 0,0 l/m 0 min 0 min 9 W/m 9,7 km/h (2 Bft) 97,87 %
20.11.2018 08:46 2,7 C 2,2 C 2,2 C 82 % 1007,9 hPa 0,0 l/m 0 min 0 min 10 W/m 9,7 km/h (2 Bft) 97,87 %
20.11.2018 08:48 2,7 C 2,2 C 2,2 C 82 % 1007,7 hPa 0,0 l/m 0 min 0 min 12 W/m 12,9 km/h (3 Bft) 97,87 %
20.11.2018 08:50 2,7 C 2,2 C 2,2 C 82 % 1007,7 hPa 0,0 l/m 0 min 0 min 16 W/m 12,9 km/h (3 Bft) 97,87 %
20.11.2018 08:52 2,7 C 2,2 C 2,2 C 82 % 1007,7 hPa 0,0 l/m 0 min 0 min 16 W/m 12,9 km/h (3 Bft) 95,65 %
20.11.2018 08:54 2,7 C 2,2 C 2,2 C 81 % 1007,6 hPa 0,0 l/m 0 min 0 min 16 W/m 16,1 km/h (3 Bft) 97,87 %
20.11.2018 08:56 2,7 C 2,2 C 2,2 C 82 % 1007,7 hPa 0,0 l/m 0 min 0 min 16 W/m 9,7 km/h (2 Bft) 97,87 %
20.11.2018 08:58 2,7 C 2,2 C 2,2 C 82 % 1007,7 hPa 0,0 l/m 0 min 0 min 16 W/m 12,9 km/h (3 Bft) 93,62 %
20.11.2018 09:00 2,7 C 2,2 C 2,2 C 82 % 1007,6 hPa 0,0 l/m 0 min 0 min 18 W/m 12,9 km/h (3 Bft) 95,74 %
20.11.2018 09:02 2,7 C 2,2 C 2,2 C 82 % 1007,6 hPa 0,0 l/m 0 min 0 min 18 W/m 12,9 km/h (3 Bft) 97,87 %
20.11.2018 09:04 2,7 C 2,2 C 2,2 C 81 % 1007,7 hPa 0,0 l/m 0 min 0 min 19 W/m 16,1 km/h (3 Bft) 97,83 %
20.11.2018 09:06 2,7 C 2,2 C 2,2 C 81 % 1007,6 hPa 0,0 l/m 0 min 0 min 19 W/m 12,9 km/h (3 Bft) 95,74 %
20.11.2018 09:08 2,7 C 2,2 C 2,2 C 81 % 1007,6 hPa 0,0 l/m 0 min 0 min 19 W/m 9,7 km/h (2 Bft) 95,74 %
20.11.2018 09:10 2,7 C 2,2 C 2,2 C 82 % 1007,6 hPa 0,0 l/m 0 min 0 min 19 W/m 9,7 km/h (2 Bft) 97,87 %
20.11.2018 09:12 2,7 C 2,2 C 2,2 C 82 % 1007,6 hPa 0,0 l/m 0 min 0 min 20 W/m 12,9 km/h (3 Bft) 95,74 %
20.11.2018 09:14 2,7 C 2,2 C 2,2 C 81 % 1007,6 hPa 0,0 l/m 0 min 0 min 22 W/m 12,9 km/h (3 Bft) 95,74 %
20.11.2018 09:16 2,7 C 2,8 C 2,2 C 81 % 1007,5 hPa 0,0 l/m 0 min 0 min 21 W/m 12,9 km/h (3 Bft) 93,48 %
20.11.2018 09:18 2,8 C 2,2 C 2,2 C 81 % 1007,5 hPa 0,0 l/m 0 min 0 min 21 W/m 9,7 km/h (2 Bft) 95,74 %
20.11.2018 09:20 2,8 C 2,2 C 2,2 C 81 % 1007,5 hPa 0,0 l/m 0 min 0 min 21 W/m 25,7 km/h (4 Bft) 93,62 %
20.11.2018 09:22 2,8 C 2,2 C 2,2 C 81 % 1007,5 hPa 0,0 l/m 0 min 0 min 21 W/m 9,7 km/h (2 Bft) 93,62 %
20.11.2018 09:24 2,8 C 2,2 C 2,2 C 81 % 1007,5 hPa 0,0 l/m 0 min 0 min 19 W/m 19,3 km/h (3 Bft) 91,49 %
20.11.2018 09:26 2,8 C 2,2 C 2,2 C 81 % 1007,4 hPa 0,0 l/m 0 min 0 min 19 W/m 12,9 km/h (3 Bft) 93,62 %
20.11.2018 09:28 2,8 C 2,2 C 2,2 C 81 % 1007,5 hPa 0,0 l/m 0 min 0 min 21 W/m 12,9 km/h (3 Bft) 91,30 %
20.11.2018 09:30 2,8 C 2,8 C 2,2 C 81 % 1007,5 hPa 0,0 l/m 0 min 0 min 21 W/m 12,9 km/h (3 Bft) 93,62 %
20.11.2018 09:32 2,8 C 2,8 C 2,2 C 81 % 1007,5 hPa 0,0 l/m 0 min 0 min 21 W/m 12,9 km/h (3 Bft) 93,62 %
20.11.2018 09:34 2,8 C 2,8 C 2,2 C 81 % 1007,6 hPa 0,0 l/m 0 min 0 min 22 W/m 12,9 km/h (3 Bft) 95,74 %
20.11.2018 09:36 2,8 C 2,8 C 2,2 C 81 % 1007,5 hPa 0,0 l/m 0 min 0 min 24 W/m 12,9 km/h (3 Bft) 97,87 %
20.11.2018 09:38 2,8 C 2,8 C 2,2 C 82 % 1007,5 hPa 0,0 l/m 0 min 0 min 25 W/m 9,7 km/h (2 Bft) 97,87 %
20.11.2018 09:40 2,8 C 2,8 C 2,2 C 82 % 1007,5 hPa 0,0 l/m 0 min 0 min 25 W/m 16,1 km/h (3 Bft) 97,83 %
20.11.2018 09:42 2,8 C 2,8 C 2,2 C 81 % 1007,5 hPa 0,0 l/m 0 min 0 min 26 W/m 9,7 km/h (2 Bft) 95,74 %
20.11.2018 09:44 2,8 C 2,8 C 2,2 C 81 % 1007,5 hPa 0,0 l/m 0 min 0 min 28 W/m 19,3 km/h (3 Bft) 95,74 %
20.11.2018 09:46 2,8 C 2,8 C 2,2 C 82 % 1007,5 hPa 0,0 l/m 0 min 0 min 29 W/m 12,9 km/h (3 Bft) 97,87 %
20.11.2018 09:48 2,8 C 2,8 C 2,2 C 81 % 1007,5 hPa 0,0 l/m 0 min 0 min 30 W/m 16,1 km/h (3 Bft) 95,74 %
20.11.2018 09:50 2,8 C 2,8 C 2,2 C 81 % 1007,5 hPa 0,0 l/m 0 min 0 min 28 W/m 9,7 km/h (2 Bft) 97,87 %
20.11.2018 09:52 2,8 C 2,8 C 2,2 C 82 % 1007,5 hPa 0,0 l/m 0 min 0 min 30 W/m 12,9 km/h (3 Bft) 97,83 %
20.11.2018 09:54 2,8 C 2,8 C 2,2 C 82 % 1007,5 hPa 0,0 l/m 0 min 0 min 30 W/m 16,1 km/h (3 Bft) 93,62 %
20.11.2018 09:56 2,9 C 2,8 C 2,2 C 82 % 1007,5 hPa 0,0 l/m 0 min 0 min 30 W/m 12,9 km/h (3 Bft) 95,74 %
20.11.2018 09:58 2,9 C 2,8 C 2,2 C 81 % 1007,6 hPa 0,0 l/m 0 min 0 min 30 W/m 19,3 km/h (3 Bft) 100,00 %
20.11.2018 10:00 2,9 C 2,8 C 2,2 C 81 % 1007,5 hPa 0,0 l/m 0 min 0 min 34 W/m 12,9 km/h (3 Bft) 97,87 %
20.11.2018 10:02 2,9 C 2,8 C 2,2 C 81 % 1007,5 hPa 0,0 l/m 0 min 0 min 37 W/m 12,9 km/h (3 Bft) 97,83 %
20.11.2018 10:04 2,9 C 2,8 C 2,2 C 81 % 1007,4 hPa 0,0 l/m 0 min 0 min 37 W/m 12,9 km/h (3 Bft) 97,87 %
20.11.2018 10:06 2,9 C 2,8 C 2,2 C 81 % 1007,3 hPa 0,0 l/m 0 min 0 min 39 W/m 12,9 km/h (3 Bft) 95,74 %
20.11.2018 10:08 2,9 C 2,8 C 2,2 C 81 % 1007,4 hPa 0,0 l/m 0 min 0 min 38 W/m 19,3 km/h (3 Bft) 97,87 %
20.11.2018 10:10 2,9 C 2,8 C 2,2 C 81 % 1007,4 hPa 0,0 l/m 0 min 0 min 40 W/m 12,9 km/h (3 Bft) 97,87 %
20.11.2018 10:12 2,9 C 2,8 C 2,2 C 81 % 1007,5 hPa 0,0 l/m 0 min 0 min 38 W/m 16,1 km/h (3 Bft) 97,87 %
20.11.2018 10:14 2,9 C 2,8 C 2,2 C 81 % 1007,5 hPa 0,0 l/m 0 min 0 min 35 W/m 12,9 km/h (3 Bft) 95,65 %
20.11.2018 10:16 3,0 C 2,8 C 2,2 C 81 % 1007,5 hPa 0,0 l/m 0 min 0 min 37 W/m 9,7 km/h (2 Bft) 97,87 %
20.11.2018 10:18 3,0 C 2,8 C 2,2 C 81 % 1007,5 hPa 0,0 l/m 0 min 0 min 38 W/m 16,1 km/h (3 Bft) 95,74 %
20.11.2018 10:20 3,0 C 2,8 C 2,2 C 81 % 1007,5 hPa 0,0 l/m 0 min 0 min 40 W/m 12,9 km/h (3 Bft) 97,87 %
20.11.2018 10:22 3,1 C 2,8 C 2,2 C 81 % 1007,6 hPa 0,0 l/m 0 min 0 min 40 W/m 9,7 km/h (2 Bft) 97,87 %
20.11.2018 10:24 3,1 C 2,8 C 2,2 C 81 % 1007,5 hPa 0,0 l/m 0 min 0 min 43 W/m 32,2 km/h (5 Bft) 93,62 %
20.11.2018 10:26 3,1 C 2,8 C 2,2 C 81 % 1007,5 hPa 0,0 l/m 0 min 0 min 40 W/m 12,9 km/h (3 Bft) 97,83 %
20.11.2018 10:28 3,1 C 2,8 C 2,8 C 81 % 1007,5 hPa 0,0 l/m 0 min 0 min 40 W/m 12,9 km/h (3 Bft) 97,87 %
20.11.2018 10:30 3,1 C 2,8 C 2,8 C 81 % 1007,5 hPa 0,0 l/m 0 min 0 min 36 W/m 12,9 km/h (3 Bft) 97,87 %
20.11.2018 10:32 3,1 C 2,8 C 2,2 C 81 % 1007,6 hPa 0,0 l/m 0 min 0 min 36 W/m 9,7 km/h (2 Bft) 95,74 %
20.11.2018 10:34 3,1 C 2,8 C 2,8 C 81 % 1007,5 hPa 0,0 l/m 0 min 0 min 39 W/m 12,9 km/h (3 Bft) 97,87 %
20.11.2018 10:36 3,1 C 2,8 C 2,8 C 81 % 1007,5 hPa 0,0 l/m 0 min 0 min 39 W/m 9,7 km/h (2 Bft) 97,87 %
20.11.2018 10:38 3,1 C 2,8 C 2,8 C 81 % 1007,4 hPa 0,0 l/m 0 min 0 min 43 W/m 9,7 km/h (2 Bft) 100,00 %
20.11.2018 10:40 3,1 C 2,8 C 2,8 C 81 % 1007,4 hPa 0,0 l/m 0 min 0 min 41 W/m 12,9 km/h (3 Bft) 100,00 %
20.11.2018 10:42 3,1 C 2,8 C 2,8 C 81 % 1007,3 hPa 0,0 l/m 0 min 0 min 40 W/m 12,9 km/h (3 Bft) 100,00 %
20.11.2018 10:44 3,2 C 2,8 C 2,8 C 81 % 1007,3 hPa 0,0 l/m 0 min 0 min 42 W/m 12,9 km/h (3 Bft) 100,00 %
20.11.2018 10:46 3,2 C 3,3 C 2,8 C 81 % 1007,4 hPa 0,0 l/m 0 min 0 min 42 W/m 12,9 km/h (3 Bft) 97,87 %
20.11.2018 10:48 3,2 C 3,3 C 2,8 C 81 % 1007,4 hPa 0,0 l/m 0 min 0 min 41 W/m 12,9 km/h (3 Bft) 100,00 %
20.11.2018 10:50 3,2 C 3,3 C 2,8 C 81 % 1007,4 hPa 0,0 l/m 0 min 0 min 40 W/m 9,7 km/h (2 Bft) 100,00 %
20.11.2018 10:52 3,2 C 3,3 C 2,8 C 81 % 1007,4 hPa 0,0 l/m 0 min 0 min 41 W/m 9,7 km/h (2 Bft) 100,00 %
20.11.2018 10:54 3,2 C 3,3 C 2,8 C 81 % 1007,4 hPa 0,0 l/m 0 min 0 min 42 W/m 12,9 km/h (3 Bft) 97,87 %
20.11.2018 10:56 3,2 C 3,3 C 2,8 C 81 % 1007,4 hPa 0,0 l/m 0 min 0 min 42 W/m 9,7 km/h (2 Bft) 100,00 %
20.11.2018 10:58 3,2 C 3,3 C 2,8 C 81 % 1007,3 hPa 0,0 l/m 0 min 0 min 42 W/m 12,9 km/h (3 Bft) 97,87 %
20.11.2018 11:00 3,2 C 3,3 C 2,8 C 81 % 1007,4 hPa 0,0 l/m 0 min 0 min 45 W/m 9,7 km/h (2 Bft) 100,00 %
20.11.2018 11:02 3,3 C 3,3 C 2,8 C 81 % 1007,3 hPa 0,0 l/m 0 min 0 min 45 W/m 9,7 km/h (2 Bft) 100,00 %
20.11.2018 11:04 3,3 C 3,3 C 2,8 C 81 % 1007,3 hPa 0,0 l/m 0 min 0 min 46 W/m 9,7 km/h (2 Bft) 100,00 %
20.11.2018 11:06 3,3 C 3,3 C 2,8 C 81 % 1007,3 hPa 0,0 l/m 0 min 0 min 44 W/m 16,1 km/h (3 Bft) 100,00 %
20.11.2018 11:08 3,3 C 3,3 C 2,8 C 81 % 1007,4 hPa 0,0 l/m 0 min 0 min 44 W/m 12,9 km/h (3 Bft) 97,87 %
20.11.2018 11:10 3,3 C 3,3 C 2,8 C 81 % 1007,3 hPa 0,0 l/m 0 min 0 min 44 W/m 9,7 km/h (2 Bft) 100,00 %
20.11.2018 11:12 3,3 C 3,3 C 2,8 C 81 % 1007,3 hPa 0,0 l/m 0 min 0 min 43 W/m 12,9 km/h (3 Bft) 100,00 %
20.11.2018 11:14 3,3 C 3,3 C 2,8 C 81 % 1007,3 hPa 0,0 l/m 0 min 0 min 43 W/m 9,7 km/h (2 Bft) 100,00 %
20.11.2018 11:16 3,3 C 3,3 C 2,8 C 81 % 1007,3 hPa 0,0 l/m 0 min 0 min 42 W/m 9,7 km/h (2 Bft) 97,87 %
20.11.2018 11:18 3,3 C 3,3 C 2,8 C 81 % 1007,4 hPa 0,0 l/m 0 min 0 min 44 W/m 9,7 km/h (2 Bft) 100,00 %
20.11.2018 11:20 3,3 C 3,3 C 2,8 C 81 % 1007,3 hPa 0,0 l/m 0 min 0 min 46 W/m 9,7 km/h (2 Bft) 100,00 %
20.11.2018 11:22 3,3 C 3,3 C 2,8 C 81 % 1007,2 hPa 0,0 l/m 0 min 0 min 53 W/m 19,3 km/h (3 Bft) 97,87 %
20.11.2018 11:24 3,4 C 3,3 C 2,8 C 81 % 1007,2 hPa 0,0 l/m 0 min 0 min 63 W/m 12,9 km/h (3 Bft) 97,83 %
20.11.2018 11:26 3,4 C 3,3 C 2,8 C 81 % 1007,1 hPa 0,0 l/m 0 min 0 min 72 W/m 12,9 km/h (3 Bft) 100,00 %
20.11.2018 11:28 3,4 C 3,3 C 2,8 C 81 % 1007,1 hPa 0,0 l/m 0 min 0 min 73 W/m 9,7 km/h (2 Bft) 100,00 %
20.11.2018 11:30 3,4 C 3,9 C 3,3 C 81 % 1007,1 hPa 0,0 l/m 0 min 0 min 79 W/m 9,7 km/h (2 Bft) 100,00 %
20.11.2018 11:32 3,4 C 3,9 C 3,3 C 81 % 1007,0 hPa 0,0 l/m 0 min 0 min 80 W/m 16,1 km/h (3 Bft) 100,00 %
20.11.2018 11:34 3,4 C 3,9 C 3,3 C 81 % 1007,0 hPa 0,0 l/m 0 min 0 min 79 W/m 12,9 km/h (3 Bft) 97,87 %
20.11.2018 11:36 3,5 C 3,9 C 3,3 C 81 % 1007,0 hPa 0,0 l/m 0 min 0 min 83 W/m 9,7 km/h (2 Bft) 97,83 %
20.11.2018 11:38 3,5 C 3,9 C 3,3 C 81 % 1007,0 hPa 0,0 l/m 0 min 0 min 88 W/m 12,9 km/h (3 Bft) 97,92 %
20.11.2018 11:40 3,6 C 3,9 C 3,3 C 81 % 1006,9 hPa 0,0 l/m 0 min 0 min 92 W/m 12,9 km/h (3 Bft) 100,00 %
20.11.2018 11:42 3,6 C 3,9 C 3,3 C 81 % 1006,9 hPa 0,0 l/m 0 min 0 min 99 W/m 12,9 km/h (3 Bft) 100,00 %
20.11.2018 11:44 3,6 C 3,9 C 3,3 C 81 % 1006,9 hPa 0,0 l/m 0 min 0 min 104 W/m 12,9 km/h (3 Bft) 97,87 %
20.11.2018 11:46 3,6 C 3,9 C 3,3 C 81 % 1006,8 hPa 0,0 l/m 0 min 0 min 110 W/m 9,7 km/h (2 Bft) 97,87 %
20.11.2018 11:48 3,7 C 3,9 C 3,3 C 81 % 1006,8 hPa 0,0 l/m 0 min 0 min 105 W/m 12,9 km/h (3 Bft) 97,83 %
20.11.2018 11:50 3,7 C 4,4 C 3,3 C 81 % 1006,8 hPa 0,0 l/m 0 min 0 min 97 W/m 9,7 km/h (2 Bft) 100,00 %
20.11.2018 11:52 3,7 C 3,9 C 3,3 C 81 % 1006,8 hPa 0,0 l/m 0 min 0 min 92 W/m 12,9 km/h (3 Bft) 100,00 %
20.11.2018 11:54 3,8 C 4,4 C 3,3 C 81 % 1006,7 hPa 0,0 l/m 0 min 0 min 96 W/m 16,1 km/h (3 Bft) 97,87 %
20.11.2018 11:56 3,8 C 4,4 C 3,9 C 81 % 1006,7 hPa 0,0 l/m 0 min 0 min 98 W/m 12,9 km/h (3 Bft) 97,87 %
20.11.2018 11:58 3,8 C 4,4 C 3,9 C 81 % 1006,7 hPa 0,0 l/m 0 min 0 min 96 W/m 9,7 km/h (2 Bft) 97,83 %
20.11.2018 12:00 3,9 C 4,4 C 3,9 C 81 % 1006,7 hPa 0,0 l/m 0 min 0 min 104 W/m 9,7 km/h (2 Bft) 97,87 %
20.11.2018 12:02 3,9 C 4,4 C 3,9 C 81 % 1006,6 hPa 0,0 l/m 0 min 0 min 106 W/m 19,3 km/h (3 Bft) 97,87 %
20.11.2018 12:04 3,9 C 4,4 C 3,9 C 80 % 1006,6 hPa 0,0 l/m 0 min 0 min 108 W/m 12,9 km/h (3 Bft) 97,87 %
20.11.2018 12:08 4,0 C 4,4 C 3,9 C 80 % 1006,4 hPa 0,0 l/m 0 min 0 min 118 W/m 12,9 km/h (3 Bft) 96,81 %
20.11.2018 12:10 4,1 C 5,0 C 3,9 C 80 % 1006,5 hPa 0,0 l/m 0 min 0 min 122 W/m 9,7 km/h (2 Bft) 93,48 %
20.11.2018 12:12 4,1 C 5,0 C 3,9 C 80 % 1006,4 hPa 0,0 l/m 0 min 0 min 124 W/m 19,3 km/h (3 Bft) 95,74 %
20.11.2018 12:14 4,2 C 5,0 C 3,9 C 79 % 1006,4 hPa 0,0 l/m 0 min 0 min 126 W/m 12,9 km/h (3 Bft) 93,62 %
20.11.2018 12:16 4,2 C 5,0 C 3,9 C 79 % 1006,4 hPa 0,0 l/m 0 min 0 min 114 W/m 9,7 km/h (2 Bft) 93,62 %
20.11.2018 12:18 4,2 C 5,0 C 3,9 C 79 % 1006,4 hPa 0,0 l/m 0 min 0 min 109 W/m 16,1 km/h (3 Bft) 95,83 %
20.11.2018 12:20 4,3 C 5,0 C 3,9 C 78 % 1006,4 hPa 0,0 l/m 0 min 0 min 115 W/m 12,9 km/h (3 Bft) 95,74 %
20.11.2018 12:22 4,3 C 5,0 C 4,4 C 78 % 1006,4 hPa 0,0 l/m 0 min 0 min 121 W/m 19,3 km/h (3 Bft) 97,83 %
20.11.2018 12:24 4,4 C 5,0 C 4,4 C 77 % 1006,4 hPa 0,0 l/m 0 min 0 min 123 W/m 25,7 km/h (4 Bft) 95,74 %
20.11.2018 12:26 4,4 C 5,0 C 4,4 C 77 % 1006,4 hPa 0,0 l/m 0 min 0 min 119 W/m 19,3 km/h (3 Bft) 95,74 %
20.11.2018 12:28 4,4 C 5,0 C 4,4 C 76 % 1006,4 hPa 0,0 l/m 0 min 0 min 114 W/m 19,3 km/h (3 Bft) 95,74 %
20.11.2018 12:30 4,4 C 5,0 C 4,4 C 76 % 1006,3 hPa 0,0 l/m 0 min 0 min 122 W/m 19,3 km/h (3 Bft) 93,62 %
20.11.2018 12:32 4,5 C 5,0 C 4,4 C 75 % 1006,3 hPa 0,0 l/m 0 min 0 min 122 W/m 22,5 km/h (4 Bft) 89,36 %
20.11.2018 12:34 4,5 C 5,0 C 4,4 C 75 % 1006,3 hPa 0,0 l/m 0 min 0 min 114 W/m 12,9 km/h (3 Bft) 93,48 %
20.11.2018 12:36 4,6 C 5,0 C 3,9 C 75 % 1006,3 hPa 0,0 l/m 0 min 0 min 106 W/m 19,3 km/h (3 Bft) 93,62 %
20.11.2018 12:38 4,6 C 5,0 C 4,4 C 75 % 1006,4 hPa 0,0 l/m 0 min 0 min 105 W/m 16,1 km/h (3 Bft) 93,62 %
20.11.2018 12:40 4,6 C 5,0 C 3,9 C 75 % 1006,2 hPa 0,0 l/m 0 min 0 min 109 W/m 19,3 km/h (3 Bft) 89,36 %
20.11.2018 12:42 4,6 C 5,0 C 3,9 C 75 % 1006,3 hPa 0,0 l/m 0 min 0 min 109 W/m 16,1 km/h (3 Bft) 93,62 %
20.11.2018 12:44 4,6 C 5,0 C 3,9 C 75 % 1006,3 hPa 0,0 l/m 0 min 0 min 102 W/m 16,1 km/h (3 Bft) 93,62 %
20.11.2018 12:46 4,6 C 5,0 C 3,9 C 75 % 1006,3 hPa 0,0 l/m 0 min 0 min 108 W/m 16,1 km/h (3 Bft) 93,48 %
20.11.2018 12:48 4,6 C 5,0 C 3,9 C 75 % 1006,2 hPa 0,0 l/m 0 min 0 min 114 W/m 12,9 km/h (3 Bft) 95,74 %
20.11.2018 12:50 4,7 C 5,0 C 3,9 C 75 % 1006,2 hPa 0,0 l/m 0 min 0 min 123 W/m 22,5 km/h (4 Bft) 93,62 %
20.11.2018 12:52 4,7 C 5,0 C 4,4 C 75 % 1006,2 hPa 0,0 l/m 0 min 0 min 135 W/m 19,3 km/h (3 Bft) 95,74 %
20.11.2018 12:54 4,7 C 5,0 C 4,4 C 75 % 1006,2 hPa 0,0 l/m 0 min 0 min 133 W/m 16,1 km/h (3 Bft) 95,74 %
20.11.2018 12:56 4,7 C 5,0 C 4,4 C 75 % 1006,2 hPa 0,0 l/m 0 min 0 min 144 W/m 19,3 km/h (3 Bft) 93,48 %
20.11.2018 12:58 4,7 C 5,0 C 4,4 C 75 % 1006,1 hPa 0,0 l/m 0 min 0 min 144 W/m 19,3 km/h (3 Bft) 93,62 %
20.11.2018 13:00 4,7 C 5,0 C 4,4 C 74 % 1006,2 hPa 0,0 l/m 0 min 0 min 137 W/m 25,7 km/h (4 Bft) 97,87 %
20.11.2018 13:02 4,7 C 5,0 C 4,4 C 74 % 1006,1 hPa 0,0 l/m 0 min 0 min 130 W/m 16,1 km/h (3 Bft) 97,87 %
20.11.2018 13:04 4,8 C 5,6 C 4,4 C 74 % 1006,1 hPa 0,0 l/m 0 min 0 min 132 W/m 12,9 km/h (3 Bft) 97,87 %
20.11.2018 13:06 4,8 C 5,0 C 4,4 C 74 % 1006,1 hPa 0,0 l/m 0 min 0 min 138 W/m 22,5 km/h (4 Bft) 95,74 %
20.11.2018 13:08 4,8 C 5,0 C 4,4 C 74 % 1006,2 hPa 0,0 l/m 0 min 0 min 128 W/m 22,5 km/h (4 Bft) 95,65 %
20.11.2018 13:10 4,8 C 5,0 C 4,4 C 74 % 1006,1 hPa 0,0 l/m 0 min 0 min 114 W/m 22,5 km/h (4 Bft) 97,87 %
20.11.2018 13:12 4,9 C 5,0 C 4,4 C 74 % 1006,1 hPa 0,0 l/m 0 min 0 min 109 W/m 12,9 km/h (3 Bft) 100,00 %
20.11.2018 13:14 4,9 C 5,0 C 4,4 C 74 % 1006,0 hPa 0,0 l/m 0 min 0 min 112 W/m 22,5 km/h (4 Bft) 100,00 %
20.11.2018 13:16 4,9 C 5,0 C 4,4 C 74 % 1006,2 hPa 0,0 l/m 0 min 0 min 106 W/m 12,9 km/h (3 Bft) 100,00 %
20.11.2018 13:18 4,9 C 5,0 C 4,4 C 74 % 1006,1 hPa 0,0 l/m 0 min 0 min 96 W/m 16,1 km/h (3 Bft) 93,62 %
20.11.2018 13:20 4,9 C 5,0 C 4,4 C 74 % 1006,1 hPa 0,0 l/m 0 min 0 min 96 W/m 16,1 km/h (3 Bft) 100,00 %
20.11.2018 13:22 4,9 C 5,0 C 4,4 C 75 % 1006,0 hPa 0,0 l/m 0 min 0 min 99 W/m 9,7 km/h (2 Bft) 100,00 %
20.11.2018 13:24 4,9 C 5,0 C 4,4 C 75 % 1006,0 hPa 0,0 l/m 0 min 0 min 91 W/m 9,7 km/h (2 Bft) 100,00 %
20.11.2018 13:26 4,9 C 5,0 C 4,4 C 75 % 1006,0 hPa 0,0 l/m 0 min 0 min 85 W/m 16,1 km/h (3 Bft) 97,87 %
20.11.2018 13:28 4,9 C 5,0 C 4,4 C 75 % 1006,0 hPa 0,0 l/m 0 min 0 min 84 W/m 16,1 km/h (3 Bft) 100,00 %
20.11.2018 13:30 4,9 C 5,0 C 4,4 C 75 % 1006,0 hPa 0,0 l/m 0 min 0 min 80 W/m 9,7 km/h (2 Bft) 97,87 %
20.11.2018 13:32 4,9 C 5,0 C 4,4 C 75 % 1006,0 hPa 0,0 l/m 0 min 0 min 77 W/m 22,5 km/h (4 Bft) 97,83 %
20.11.2018 13:34 4,9 C 5,0 C 4,4 C 75 % 1006,0 hPa 0,0 l/m 0 min 0 min 76 W/m 16,1 km/h (3 Bft) 100,00 %
20.11.2018 13:36 4,9 C 5,0 C 4,4 C 75 % 1006,0 hPa 0,0 l/m 0 min 0 min 74 W/m 12,9 km/h (3 Bft) 100,00 %
20.11.2018 13:38 4,9 C 5,0 C 4,4 C 75 % 1005,9 hPa 0,0 l/m 0 min 0 min 70 W/m 12,9 km/h (3 Bft) 100,00 %
20.11.2018 13:40 4,9 C 5,0 C 4,4 C 75 % 1006,0 hPa 0,0 l/m 0 min 0 min 69 W/m 9,7 km/h (2 Bft) 100,00 %
20.11.2018 13:42 4,9 C 4,4 C 4,4 C 75 % 1006,0 hPa 0,0 l/m 0 min 0 min 62 W/m 12,9 km/h (3 Bft) 100,00 %
20.11.2018 13:44 4,9 C 4,4 C 3,9 C 75 % 1006,0 hPa 0,0 l/m 0 min 0 min 64 W/m 9,7 km/h (2 Bft) 100,00 %
20.11.2018 13:46 4,9 C 5,0 C 4,4 C 76 % 1006,0 hPa 0,0 l/m 0 min 0 min 71 W/m 16,1 km/h (3 Bft) 97,87 %
20.11.2018 13:48 4,9 C 5,0 C 4,4 C 75 % 1005,9 hPa 0,0 l/m 0 min 0 min 72 W/m 12,9 km/h (3 Bft) 100,00 %
20.11.2018 13:50 4,9 C 5,0 C 4,4 C 75 % 1005,9 hPa 0,0 l/m 0 min 0 min 67 W/m 9,7 km/h (2 Bft) 97,87 %
20.11.2018 13:52 4,9 C 4,4 C 4,4 C 75 % 1005,9 hPa 0,0 l/m 0 min 0 min 64 W/m 16,1 km/h (3 Bft) 100,00 %
20.11.2018 13:54 4,8 C 4,4 C 3,9 C 75 % 1005,9 hPa 0,0 l/m 0 min 0 min 61 W/m 16,1 km/h (3 Bft) 100,00 %
20.11.2018 13:56 4,8 C 4,4 C 3,9 C 75 % 1005,9 hPa 0,0 l/m 0 min 0 min 60 W/m 9,7 km/h (2 Bft) 97,83 %
20.11.2018 13:58 4,8 C 4,4 C 3,9 C 76 % 1005,9 hPa 0,0 l/m 0 min 0 min 64 W/m 16,1 km/h (3 Bft) 100,00 %
20.11.2018 14:00 4,8 C 4,4 C 3,9 C 76 % 1005,9 hPa 0,0 l/m 0 min 0 min 64 W/m 12,9 km/h (3 Bft) 100,00 %
20.11.2018 14:02 4,8 C 4,4 C 3,9 C 76 % 1005,9 hPa 0,0 l/m 0 min 0 min 65 W/m 19,3 km/h (3 Bft) 100,00 %
20.11.2018 14:04 4,8 C 4,4 C 3,9 C 76 % 1005,9 hPa 0,0 l/m 0 min 0 min 63 W/m 12,9 km/h (3 Bft) 100,00 %
20.11.2018 14:06 4,8 C 4,4 C 3,9 C 76 % 1005,9 hPa 0,0 l/m 0 min 0 min 61 W/m 16,1 km/h (3 Bft) 100,00 %
20.11.2018 14:08 4,8 C 4,4 C 3,9 C 76 % 1005,8 hPa 0,0 l/m 0 min 0 min 55 W/m 12,9 km/h (3 Bft) 97,87 %
20.11.2018 14:10 4,7 C 4,4 C 3,9 C 76 % 1005,8 hPa 0,0 l/m 0 min 0 min 52 W/m 12,9 km/h (3 Bft) 100,00 %
20.11.2018 14:12 4,7 C 4,4 C 3,9 C 76 % 1005,8 hPa 0,0 l/m 0 min 0 min 52 W/m 12,9 km/h (3 Bft) 100,00 %
20.11.2018 14:14 4,7 C 4,4 C 3,9 C 76 % 1005,8 hPa 0,0 l/m 0 min 0 min 48 W/m 32,2 km/h (5 Bft) 100,00 %
20.11.2018 14:16 4,7 C 4,4 C 3,9 C 76 % 1005,9 hPa 0,0 l/m 0 min 0 min 46 W/m 16,1 km/h (3 Bft) 100,00 %
20.11.2018 14:18 4,7 C 4,4 C 3,9 C 76 % 1005,9 hPa 0,0 l/m 0 min 0 min 46 W/m 22,5 km/h (4 Bft) 100,00 %
20.11.2018 14:20 4,6 C 3,9 C 3,9 C 76 % 1005,9 hPa 0,0 l/m 0 min 0 min 47 W/m 9,7 km/h (2 Bft) 100,00 %
20.11.2018 14:22 4,6 C 3,9 C 3,9 C 76 % 1005,8 hPa 0,0 l/m 0 min 0 min 47 W/m 16,1 km/h (3 Bft) 100,00 %
20.11.2018 14:24 4,6 C 3,9 C 3,9 C 76 % 1005,8 hPa 0,0 l/m 0 min 0 min 49 W/m 19,3 km/h (3 Bft) 97,87 %
20.11.2018 14:26 4,6 C 3,9 C 3,9 C 76 % 1005,8 hPa 0,0 l/m 0 min 0 min 47 W/m 12,9 km/h (3 Bft) 97,87 %
20.11.2018 14:28 4,6 C 3,9 C 3,9 C 76 % 1005,8 hPa 0,0 l/m 0 min 0 min 47 W/m 19,3 km/h (3 Bft) 100,00 %
20.11.2018 14:30 4,5 C 3,9 C 3,9 C 76 % 1005,8 hPa 0,0 l/m 0 min 0 min 48 W/m 22,5 km/h (4 Bft) 100,00 %
20.11.2018 14:32 4,5 C 3,9 C 3,9 C 77 % 1005,8 hPa 0,0 l/m 0 min 0 min 50 W/m 16,1 km/h (3 Bft) 97,87 %
20.11.2018 14:34 4,5 C 3,9 C 3,9 C 77 % 1005,8 hPa 0,0 l/m 0 min 0 min 50 W/m 16,1 km/h (3 Bft) 100,00 %
20.11.2018 14:36 4,5 C 3,9 C 3,9 C 77 % 1005,7 hPa 0,0 l/m 0 min 0 min 55 W/m 19,3 km/h (3 Bft) 97,87 %
20.11.2018 14:38 4,4 C 3,9 C 3,9 C 77 % 1005,7 hPa 0,0 l/m 0 min 0 min 59 W/m 16,1 km/h (3 Bft) 97,87 %
20.11.2018 14:40 4,4 C 3,9 C 3,9 C 77 % 1005,6 hPa 0,0 l/m 0 min 0 min 56 W/m 19,3 km/h (3 Bft) 97,87 %
20.11.2018 14:42 4,4 C 3,9 C 3,9 C 78 % 1005,6 hPa 0,0 l/m 0 min 0 min 53 W/m 19,3 km/h (3 Bft) 97,83 %
20.11.2018 14:44 4,4 C 3,9 C 3,9 C 78 % 1005,8 hPa 0,0 l/m 0 min 0 min 48 W/m 22,5 km/h (4 Bft) 100,00 %
20.11.2018 14:46 4,4 C 3,9 C 3,9 C 78 % 1005,7 hPa 0,0 l/m 0 min 0 min 47 W/m 16,1 km/h (3 Bft) 97,87 %
20.11.2018 14:48 4,4 C 3,9 C 3,9 C 78 % 1005,7 hPa 0,0 l/m 0 min 0 min 43 W/m 19,3 km/h (3 Bft) 100,00 %
20.11.2018 14:50 4,3 C 3,9 C 3,9 C 78 % 1005,7 hPa 0,0 l/m 0 min 0 min 40 W/m 16,1 km/h (3 Bft) 97,87 %
20.11.2018 14:52 4,3 C 3,9 C 3,3 C 78 % 1005,7 hPa 0,0 l/m 0 min 0 min 35 W/m 16,1 km/h (3 Bft) 97,87 %
20.11.2018 14:54 4,3 C 3,9 C 3,3 C 79 % 1005,6 hPa 0,0 l/m 0 min 0 min 33 W/m 16,1 km/h (3 Bft) 93,48 %
20.11.2018 14:56 4,3 C 3,9 C 3,3 C 79 % 1005,6 hPa 0,0 l/m 0 min 0 min 33 W/m 16,1 km/h (3 Bft) 97,87 %
20.11.2018 14:58 4,2 C 3,9 C 3,3 C 79 % 1005,7 hPa 0,0 l/m 0 min 0 min 30 W/m 19,3 km/h (3 Bft) 95,74 %
20.11.2018 15:00 4,2 C 3,9 C 3,3 C 79 % 1005,6 hPa 0,0 l/m 0 min 0 min 27 W/m 22,5 km/h (4 Bft) 95,74 %
20.11.2018 15:02 4,2 C 3,9 C 3,3 C 79 % 1005,7 hPa 0,0 l/m 0 min 0 min 27 W/m 16,1 km/h (3 Bft) 97,87 %
20.11.2018 15:04 4,2 C 3,9 C 3,3 C 79 % 1005,6 hPa 0,0 l/m 0 min 0 min 28 W/m 16,1 km/h (3 Bft) 97,87 %
20.11.2018 15:06 4,2 C 3,9 C 3,3 C 79 % 1005,5 hPa 0,0 l/m 0 min 0 min 28 W/m 16,1 km/h (3 Bft) 95,65 %
20.11.2018 15:08 4,1 C 3,9 C 3,3 C 79 % 1005,5 hPa 0,0 l/m 0 min 0 min 28 W/m 22,5 km/h (4 Bft) 97,87 %
20.11.2018 15:10 4,1 C 3,9 C 3,3 C 79 % 1005,5 hPa 0,0 l/m 0 min 0 min 28 W/m 12,9 km/h (3 Bft) 95,74 %
20.11.2018 15:12 4,1 C 3,9 C 3,3 C 79 % 1005,5 hPa 0,0 l/m 0 min 0 min 28 W/m 9,7 km/h (2 Bft) 95,74 %
20.11.2018 15:14 4,1 C 3,9 C 3,3 C 80 % 1005,5 hPa 0,0 l/m 0 min 0 min 29 W/m 12,9 km/h (3 Bft) 93,62 %
20.11.2018 15:16 4,1 C 3,9 C 3,3 C 80 % 1005,5 hPa 0,0 l/m 0 min 0 min 27 W/m 16,1 km/h (3 Bft) 95,74 %
20.11.2018 15:18 4,1 C 3,9 C 3,3 C 80 % 1005,6 hPa 0,0 l/m 0 min 0 min 27 W/m 12,9 km/h (3 Bft) 95,65 %
20.11.2018 15:20 4,1 C 3,9 C 3,3 C 80 % 1005,5 hPa 0,0 l/m 0 min 0 min 24 W/m 12,9 km/h (3 Bft) 95,74 %
20.11.2018 15:22 4,1 C 3,9 C 3,3 C 80 % 1005,5 hPa 0,0 l/m 0 min 0 min 25 W/m 12,9 km/h (3 Bft) 95,74 %
20.11.2018 15:24 4,1 C 3,9 C 3,3 C 80 % 1005,5 hPa 0,0 l/m 0 min 0 min 25 W/m 16,1 km/h (3 Bft) 95,74 %
20.11.2018 15:26 4,1 C 3,9 C 3,3 C 80 % 1005,4 hPa 0,0 l/m 0 min 0 min 25 W/m 16,1 km/h (3 Bft) 93,62 %
20.11.2018 15:28 4,0 C 3,9 C 3,3 C 80 % 1005,4 hPa 0,0 l/m 0 min 0 min 24 W/m 9,7 km/h (2 Bft) 95,65 %
20.11.2018 15:30 4,0 C 3,9 C 3,3 C 80 % 1005,4 hPa 0,0 l/m 0 min 0 min 22 W/m 16,1 km/h (3 Bft) 93,62 %
20.11.2018 15:32 4,0 C 3,9 C 3,3 C 80 % 1005,4 hPa 0,0 l/m 0 min 0 min 21 W/m 12,9 km/h (3 Bft) 93,62 %
20.11.2018 15:34 4,0 C 3,9 C 3,3 C 80 % 1005,4 hPa 0,0 l/m 0 min 0 min 22 W/m 16,1 km/h (3 Bft) 91,49 %
20.11.2018 15:36 4,0 C 3,9 C 3,3 C 80 % 1005,3 hPa 0,0 l/m 0 min 0 min 23 W/m 12,9 km/h (3 Bft) 93,62 %
20.11.2018 15:38 4,0 C 3,9 C 3,3 C 80 % 1005,4 hPa 0,0 l/m 0 min 0 min 22 W/m 12,9 km/h (3 Bft) 95,65 %
20.11.2018 15:40 4,0 C 3,9 C 3,3 C 80 % 1005,3 hPa 0,0 l/m 0 min 0 min 23 W/m 16,1 km/h (3 Bft) 95,74 %
20.11.2018 15:42 4,0 C 3,9 C 3,3 C 80 % 1005,3 hPa 0,0 l/m 0 min 0 min 24 W/m 12,9 km/h (3 Bft) 93,48 %
20.11.2018 15:44 4,0 C 3,9 C 3,3 C 80 % 1005,3 hPa 0,0 l/m 0 min 0 min 21 W/m 16,1 km/h (3 Bft) 95,74 %
20.11.2018 15:46 4,0 C 3,9 C 3,3 C 80 % 1005,3 hPa 0,0 l/m 0 min 0 min 22 W/m 16,1 km/h (3 Bft) 95,74 %
20.11.2018 15:48 4,0 C 3,9 C 3,3 C 80 % 1005,4 hPa 0,0 l/m 0 min 0 min 18 W/m 19,3 km/h (3 Bft) 95,74 %
20.11.2018 15:50 4,0 C 3,9 C 3,3 C 80 % 1005,4 hPa 0,0 l/m 0 min 0 min 18 W/m 12,9 km/h (3 Bft) 95,74 %
20.11.2018 15:52 4,0 C 3,9 C 3,3 C 80 % 1005,3 hPa 0,0 l/m 0 min 0 min 17 W/m 12,9 km/h (3 Bft) 95,65 %
20.11.2018 15:54 4,0 C 3,9 C 3,3 C 80 % 1005,4 hPa 0,0 l/m 0 min 0 min 17 W/m 16,1 km/h (3 Bft) 95,74 %
20.11.2018 15:56 4,0 C 3,9 C 3,3 C 80 % 1005,4 hPa 0,0 l/m 0 min 0 min 14 W/m 16,1 km/h (3 Bft) 95,74 %
20.11.2018 15:58 4,0 C 3,9 C 3,3 C 80 % 1005,4 hPa 0,0 l/m 0 min 0 min 12 W/m 12,9 km/h (3 Bft) 95,74 %
20.11.2018 16:00 4,0 C 3,9 C 3,3 C 80 % 1005,4 hPa 0,0 l/m 0 min 0 min 11 W/m 12,9 km/h (3 Bft) 95,74 %
20.11.2018 16:02 4,1 C 3,3 C 3,3 C 80 % 1005,4 hPa 0,0 l/m 0 min 0 min 11 W/m 16,1 km/h (3 Bft) 97,87 %
20.11.2018 16:04 4,0 C 3,3 C 3,3 C 80 % 1005,4 hPa 0,0 l/m 0 min 0 min 11 W/m 16,1 km/h (3 Bft) 97,83 %
20.11.2018 16:06 4,1 C 3,3 C 3,3 C 80 % 1005,4 hPa 0,0 l/m 0 min 0 min 9 W/m 16,1 km/h (3 Bft) 97,87 %
20.11.2018 16:08 4,0 C 3,3 C 3,3 C 80 % 1005,4 hPa 0,0 l/m 0 min 0 min 9 W/m 12,9 km/h (3 Bft) 95,74 %
20.11.2018 16:10 4,0 C 3,3 C 3,3 C 80 % 1005,4 hPa 0,0 l/m 0 min 0 min 7 W/m 19,3 km/h (3 Bft) 97,87 %
20.11.2018 16:12 4,0 C 3,3 C 3,3 C 80 % 1005,5 hPa 0,0 l/m 0 min 0 min 7 W/m 12,9 km/h (3 Bft) 97,87 %
20.11.2018 16:14 4,0 C 3,3 C 3,3 C 80 % 1005,4 hPa 0,0 l/m 0 min 0 min 6 W/m 12,9 km/h (3 Bft) 97,87 %
20.11.2018 16:16 4,0 C 3,3 C 3,3 C 80 % 1005,4 hPa 0,0 l/m 0 min 0 min 5 W/m 16,1 km/h (3 Bft) 97,83 %
20.11.2018 16:18 4,0 C 3,3 C 3,3 C 81 % 1005,4 hPa 0,0 l/m 0 min 0 min 5 W/m 16,1 km/h (3 Bft) 95,74 %
20.11.2018 16:20 4,0 C 3,3 C 3,3 C 81 % 1005,3 hPa 0,0 l/m 0 min 0 min 5 W/m 16,1 km/h (3 Bft) 97,87 %
20.11.2018 16:22 4,0 C 3,3 C 3,3 C 81 % 1005,4 hPa 0,0 l/m 0 min 0 min 5 W/m 16,1 km/h (3 Bft) 97,87 %
20.11.2018 16:24 4,0 C 3,3 C 3,3 C 81 % 1005,4 hPa 0,0 l/m 0 min 0 min 2 W/m 12,9 km/h (3 Bft) 97,37 %
20.11.2018 16:26 4,0 C 3,3 C 3,3 C 81 % 1005,5 hPa 0,0 l/m 0 min 0 min 0 W/m 16,1 km/h (3 Bft) 97,87 %
20.11.2018 16:28 4,0 C 3,3 C 3,3 C 81 % 1005,5 hPa 0,0 l/m 0 min 0 min 0 W/m 9,7 km/h (2 Bft) 97,87 %
20.11.2018 16:30 4,0 C 3,3 C 3,3 C 81 % 1005,4 hPa 0,0 l/m 0 min 0 min 0 W/m 9,7 km/h (2 Bft) 97,83 %
20.11.2018 16:32 4,0 C 3,3 C 3,3 C 81 % 1005,4 hPa 0,0 l/m 0 min 0 min 0 W/m 12,9 km/h (3 Bft) 97,87 %
20.11.2018 16:34 3,9 C 3,3 C 3,3 C 81 % 1005,4 hPa 0,0 l/m 0 min 0 min 0 W/m 9,7 km/h (2 Bft) 97,87 %
20.11.2018 16:36 4,0 C 3,3 C 3,3 C 81 % 1005,3 hPa 0,0 l/m 0 min 0 min 0 W/m 12,9 km/h (3 Bft) 98,31 %
20.11.2018 16:38 4,0 C 3,3 C 3,3 C 81 % 1005,4 hPa 0,0 l/m 0 min 0 min 0 W/m 9,7 km/h (2 Bft) 100,00 %
20.11.2018 16:40 4,0 C 3,3 C 3,3 C 81 % 1005,4 hPa 0,0 l/m 0 min 0 min 0 W/m 12,9 km/h (3 Bft) 97,87 %
20.11.2018 16:42 4,0 C 3,3 C 3,3 C 81 % 1005,4 hPa 0,0 l/m 0 min 0 min 0 W/m 12,9 km/h (3 Bft) 97,83 %
20.11.2018 16:44 4,0 C 3,9 C 3,3 C 81 % 1005,5 hPa 0,0 l/m 0 min 0 min 0 W/m 12,9 km/h (3 Bft) 97,87 %
20.11.2018 16:46 4,0 C 3,9 C 3,3 C 81 % 1005,4 hPa 0,0 l/m 0 min 0 min 0 W/m 12,9 km/h (3 Bft) 100,00 %
20.11.2018 16:48 4,0 C 3,9 C 3,3 C 81 % 1005,4 hPa 0,0 l/m 0 min 0 min 0 W/m 12,9 km/h (3 Bft) 100,00 %
20.11.2018 16:50 4,0 C 3,9 C 3,3 C 81 % 1005,3 hPa 0,0 l/m 0 min 0 min 0 W/m 12,9 km/h (3 Bft) 100,00 %
20.11.2018 16:52 4,1 C 3,9 C 3,3 C 81 % 1005,4 hPa 0,0 l/m 0 min 0 min 0 W/m 12,9 km/h (3 Bft) 97,83 %
20.11.2018 16:54 4,1 C 3,9 C 3,3 C 81 % 1005,4 hPa 0,0 l/m 0 min 0 min 0 W/m 9,7 km/h (2 Bft) 100,00 %
20.11.2018 16:56 4,1 C 3,9 C 3,3 C 80 % 1005,5 hPa 0,0 l/m 0 min 0 min 0 W/m 12,9 km/h (3 Bft) 100,00 %
20.11.2018 16:58 4,1 C 3,9 C 3,3 C 80 % 1005,4 hPa 0,0 l/m 0 min 0 min 0 W/m 16,1 km/h (3 Bft) 100,00 %
20.11.2018 17:00 4,1 C 3,9 C 3,3 C 80 % 1005,4 hPa 0,0 l/m 0 min 0 min 0 W/m 12,9 km/h (3 Bft) 100,00 %
20.11.2018 17:02 4,2 C 3,9 C 3,3 C 80 % 1005,3 hPa 0,0 l/m 0 min 0 min 0 W/m 12,9 km/h (3 Bft) 97,87 %
20.11.2018 17:04 4,2 C 3,9 C 3,3 C 80 % 1005,3 hPa 0,0 l/m 0 min 0 min 0 W/m 12,9 km/h (3 Bft) 100,00 %
20.11.2018 17:06 4,2 C 3,9 C 3,3 C 80 % 1005,4 hPa 0,0 l/m 0 min 0 min 0 W/m 12,9 km/h (3 Bft) 100,00 %
20.11.2018 17:08 4,2 C 3,9 C 3,3 C 80 % 1005,4 hPa 0,0 l/m 0 min 0 min 0 W/m 16,1 km/h (3 Bft) 100,00 %
20.11.2018 17:10 4,2 C 3,9 C 3,3 C 80 % 1005,4 hPa 0,0 l/m 0 min 0 min 0 W/m 12,9 km/h (3 Bft) 100,00 %
20.11.2018 17:12 4,2 C 3,9 C 3,3 C 80 % 1005,4 hPa 0,0 l/m 0 min 0 min 0 W/m 16,1 km/h (3 Bft) 100,00 %
20.11.2018 17:14 4,2 C 3,9 C 3,3 C 79 % 1005,4 hPa 0,0 l/m 0 min 0 min 0 W/m 12,9 km/h (3 Bft) 97,87 %
20.11.2018 17:16 4,2 C 3,9 C 3,3 C 79 % 1005,4 hPa 0,0 l/m 0 min 0 min 0 W/m 16,1 km/h (3 Bft) 97,83 %
20.11.2018 17:18 4,2 C 3,9 C 3,3 C 79 % 1005,5 hPa 0,0 l/m 0 min 0 min 0 W/m 12,9 km/h (3 Bft) 97,87 %
20.11.2018 17:20 4,2 C 3,9 C 3,3 C 79 % 1005,5 hPa 0,0 l/m 0 min 0 min 0 W/m 12,9 km/h (3 Bft) 100,00 %
20.11.2018 17:22 4,3 C 3,9 C 3,3 C 79 % 1005,5 hPa 0,0 l/m 0 min 0 min 0 W/m 12,9 km/h (3 Bft) 97,87 %
20.11.2018 17:24 4,3 C 3,9 C 3,3 C 79 % 1005,5 hPa 0,0 l/m 0 min 0 min 0 W/m 12,9 km/h (3 Bft) 100,00 %
20.11.2018 17:26 4,3 C 3,9 C 3,3 C 79 % 1005,5 hPa 0,0 l/m 0 min 0 min 0 W/m 9,7 km/h (2 Bft) 97,87 %
20.11.2018 17:28 4,3 C 3,9 C 3,3 C 79 % 1005,5 hPa 0,0 l/m 0 min 0 min 0 W/m 12,9 km/h (3 Bft) 97,83 %
20.11.2018 17:30 4,3 C 3,9 C 3,3 C 79 % 1005,5 hPa 0,0 l/m 0 min 0 min 0 W/m 9,7 km/h (2 Bft) 97,87 %
20.11.2018 17:32 4,3 C 3,9 C 3,3 C 79 % 1005,5 hPa 0,0 l/m 0 min 0 min 0 W/m 9,7 km/h (2 Bft) 100,00 %
20.11.2018 17:34 4,3 C 3,9 C 3,3 C 79 % 1005,5 hPa 0,0 l/m 0 min 0 min 0 W/m 12,9 km/h (3 Bft) 100,00 %
20.11.2018 17:36 4,3 C 3,9 C 3,3 C 79 % 1005,5 hPa 0,0 l/m 0 min 0 min 0 W/m 16,1 km/h (3 Bft) 97,87 %
20.11.2018 17:38 4,3 C 3,9 C 3,3 C 79 % 1005,5 hPa 0,0 l/m 0 min 0 min 0 W/m 12,9 km/h (3 Bft) 95,74 %
20.11.2018 17:40 4,3 C 3,9 C 3,3 C 78 % 1005,6 hPa 0,0 l/m 0 min 0 min 0 W/m 9,7 km/h (2 Bft) 97,83 %
20.11.2018 17:42 4,3 C 3,9 C 3,3 C 78 % 1005,5 hPa 0,0 l/m 0 min 0 min 0 W/m 19,3 km/h (3 Bft) 97,87 %
20.11.2018 17:44 4,3 C 3,9 C 3,3 C 78 % 1005,5 hPa 0,0 l/m 0 min 0 min 0 W/m 16,1 km/h (3 Bft) 97,87 %
20.11.2018 17:46 4,3 C 3,9 C 3,3 C 78 % 1005,6 hPa 0,0 l/m 0 min 0 min 0 W/m 12,9 km/h (3 Bft) 93,62 %
20.11.2018 17:48 4,3 C 3,9 C 3,3 C 78 % 1005,5 hPa 0,0 l/m 0 min 0 min 0 W/m 19,3 km/h (3 Bft) 100,00 %
20.11.2018 17:50 4,3 C 3,9 C 3,3 C 78 % 1005,5 hPa 0,0 l/m 0 min 0 min 0 W/m 12,9 km/h (3 Bft) 97,87 %
20.11.2018 17:52 4,4 C 3,9 C 3,3 C 78 % 1005,5 hPa 0,0 l/m 0 min 0 min 0 W/m 12,9 km/h (3 Bft) 97,83 %
20.11.2018 17:54 4,3 C 3,9 C 3,3 C 77 % 1005,6 hPa 0,0 l/m 0 min 0 min 0 W/m 9,7 km/h (2 Bft) 97,87 %
20.11.2018 17:56 4,4 C 3,9 C 3,3 C 77 % 1005,7 hPa 0,0 l/m 0 min 0 min 0 W/m 12,9 km/h (3 Bft) 97,87 %
20.11.2018 17:58 4,4 C 3,9 C 3,3 C 78 % 1005,6 hPa 0,0 l/m 0 min 0 min 0 W/m 16,1 km/h (3 Bft) 97,87 %
20.11.2018 18:00 4,4 C 3,9 C 3,3 C 77 % 1005,7 hPa 0,0 l/m 0 min 0 min 0 W/m 12,9 km/h (3 Bft) 95,74 %
20.11.2018 18:02 4,4 C 3,9 C 3,3 C 77 % 1005,7 hPa 0,0 l/m 0 min 0 min 0 W/m 16,1 km/h (3 Bft) 95,65 %
20.11.2018 18:04 4,4 C 3,9 C 3,3 C 77 % 1005,6 hPa 0,0 l/m 0 min 0 min 0 W/m 16,1 km/h (3 Bft) 95,74 %
20.11.2018 18:08 4,5 C 3,9 C 3,3 C 77 % 1005,7 hPa 0,0 l/m 0 min 0 min 0 W/m 16,1 km/h (3 Bft) 93,62 %
20.11.2018 18:10 4,5 C 3,9 C 3,3 C 76 % 1005,6 hPa 0,0 l/m 0 min 0 min 0 W/m 12,9 km/h (3 Bft) 95,74 %
20.11.2018 18:12 4,5 C 3,9 C 3,3 C 76 % 1005,6 hPa 0,0 l/m 0 min 0 min 0 W/m 22,5 km/h (4 Bft) 95,74 %
20.11.2018 18:14 4,5 C 3,9 C 3,3 C 76 % 1005,7 hPa 0,0 l/m 0 min 0 min 0 W/m 16,1 km/h (3 Bft) 95,65 %
20.11.2018 18:16 4,6 C 3,9 C 3,3 C 76 % 1005,6 hPa 0,0 l/m 0 min 0 min 0 W/m 12,9 km/h (3 Bft) 95,74 %
20.11.2018 18:18 4,6 C 3,9 C 3,3 C 76 % 1005,7 hPa 0,0 l/m 0 min 0 min 0 W/m 19,3 km/h (3 Bft) 93,62 %
20.11.2018 18:20 4,6 C 3,9 C 3,3 C 76 % 1005,6 hPa 0,0 l/m 0 min 0 min 0 W/m 9,7 km/h (2 Bft) 95,74 %
20.11.2018 18:22 4,6 C 3,9 C 3,3 C 76 % 1005,7 hPa 0,0 l/m 0 min 0 min 0 W/m 12,9 km/h (3 Bft) 95,74 %
20.11.2018 18:24 4,6 C 3,9 C 3,3 C 76 % 1005,7 hPa 0,0 l/m 0 min 0 min 0 W/m 19,3 km/h (3 Bft) 97,87 %
20.11.2018 18:26 4,6 C 3,9 C 3,3 C 76 % 1005,6 hPa 0,0 l/m 0 min 0 min 0 W/m 19,3 km/h (3 Bft) 95,65 %
20.11.2018 18:28 4,6 C 3,9 C 3,3 C 76 % 1005,6 hPa 0,0 l/m 0 min 0 min 0 W/m 22,5 km/h (4 Bft) 100,00 %
20.11.2018 18:30 4,6 C 3,9 C 3,3 C 76 % 1005,6 hPa 0,0 l/m 0 min 0 min 0 W/m 22,5 km/h (4 Bft) 97,87 %
20.11.2018 18:32 4,6 C 3,9 C 3,3 C 76 % 1005,7 hPa 0,0 l/m 0 min 0 min 0 W/m 16,1 km/h (3 Bft) 97,87 %
20.11.2018 18:34 4,6 C 3,9 C 3,3 C 76 % 1005,7 hPa 0,0 l/m 0 min 0 min 0 W/m 16,1 km/h (3 Bft) 97,87 %
20.11.2018 18:36 4,6 C 3,9 C 3,3 C 76 % 1005,8 hPa 0,0 l/m 0 min 0 min 0 W/m 16,1 km/h (3 Bft) 94,83 %
20.11.2018 18:38 4,6 C 3,9 C 3,3 C 76 % 1005,8 hPa 0,0 l/m 0 min 0 min 0 W/m 12,9 km/h (3 Bft) 97,14 %
20.11.2018 18:40 4,6 C 3,9 C 3,3 C 76 % 1005,9 hPa 0,0 l/m 0 min 0 min 0 W/m 29,0 km/h (5 Bft) 91,49 %
20.11.2018 18:42 4,6 C 3,9 C 3,3 C 76 % 1005,9 hPa 0,0 l/m 0 min 0 min 0 W/m 12,9 km/h (3 Bft) 95,74 %
20.11.2018 18:44 4,6 C 3,9 C 3,3 C 76 % 1005,9 hPa 0,0 l/m 0 min 0 min 0 W/m 16,1 km/h (3 Bft) 97,87 %
20.11.2018 18:46 4,6 C 3,9 C 3,3 C 76 % 1005,8 hPa 0,0 l/m 0 min 0 min 0 W/m 22,5 km/h (4 Bft) 100,00 %
20.11.2018 18:48 4,6 C 3,9 C 3,3 C 76 % 1005,9 hPa 0,0 l/m 0 min 0 min 0 W/m 19,3 km/h (3 Bft) 100,00 %
20.11.2018 18:50 4,6 C 3,9 C 3,3 C 77 % 1005,9 hPa 0,0 l/m 0 min 0 min 0 W/m 16,1 km/h (3 Bft) 97,83 %
20.11.2018 18:52 4,6 C 3,9 C 3,3 C 77 % 1006,0 hPa 0,0 l/m 0 min 0 min 0 W/m 16,1 km/h (3 Bft) 100,00 %
20.11.2018 18:54 4,5 C 3,9 C 3,3 C 77 % 1006,0 hPa 0,0 l/m 0 min 0 min 0 W/m 19,3 km/h (3 Bft) 97,87 %
20.11.2018 18:56 4,5 C 3,9 C 3,3 C 77 % 1006,0 hPa 0,0 l/m 0 min 0 min 0 W/m 16,1 km/h (3 Bft) 100,00 %
20.11.2018 18:58 4,5 C 3,9 C 3,3 C 77 % 1006,0 hPa 0,0 l/m 0 min 0 min 0 W/m 32,2 km/h (5 Bft) 97,87 %
20.11.2018 19:00 4,5 C 3,9 C 3,3 C 77 % 1006,0 hPa 0,0 l/m 0 min 0 min 0 W/m 12,9 km/h (3 Bft) 97,87 %
20.11.2018 19:02 4,5 C 3,9 C 3,3 C 77 % 1006,0 hPa 0,0 l/m 0 min 0 min 0 W/m 35,4 km/h (5 Bft) 97,83 %
20.11.2018 19:04 4,5 C 3,9 C 3,3 C 77 % 1006,1 hPa 0,0 l/m 0 min 0 min 0 W/m 22,5 km/h (4 Bft) 100,00 %
20.11.2018 19:06 4,5 C 3,9 C 3,3 C 77 % 1006,2 hPa 0,0 l/m 0 min 0 min 0 W/m 16,1 km/h (3 Bft) 100,00 %
20.11.2018 19:08 4,5 C 3,9 C 3,3 C 77 % 1006,1 hPa 0,0 l/m 0 min 0 min 0 W/m 29,0 km/h (5 Bft) 100,00 %
20.11.2018 19:10 4,5 C 3,9 C 3,3 C 77 % 1006,2 hPa 0,0 l/m 0 min 0 min 0 W/m 35,4 km/h (5 Bft) 100,00 %
20.11.2018 19:12 4,5 C 3,9 C 3,3 C 77 % 1006,3 hPa 0,0 l/m 0 min 0 min 0 W/m 22,5 km/h (4 Bft) 97,83 %
20.11.2018 19:14 4,5 C 3,9 C 3,3 C 77 % 1006,2 hPa 0,0 l/m 0 min 0 min 0 W/m 22,5 km/h (4 Bft) 100,00 %
20.11.2018 19:16 4,5 C 3,9 C 3,3 C 77 % 1006,2 hPa 0,0 l/m 0 min 0 min 0 W/m 19,3 km/h (3 Bft) 97,87 %
20.11.2018 19:18 4,5 C 3,9 C 3,3 C 77 % 1006,3 hPa 0,0 l/m 0 min 0 min 0 W/m 19,3 km/h (3 Bft) 97,87 %
20.11.2018 19:20 4,5 C 3,9 C 3,3 C 77 % 1006,3 hPa 0,0 l/m 0 min 0 min 0 W/m 19,3 km/h (3 Bft) 95,74 %
20.11.2018 19:22 4,5 C 3,9 C 3,3 C 77 % 1006,3 hPa 0,0 l/m 0 min 0 min 0 W/m 19,3 km/h (3 Bft) 97,87 %
20.11.2018 19:24 4,5 C 3,9 C 3,3 C 77 % 1006,2 hPa 0,0 l/m 0 min 0 min 0 W/m 19,3 km/h (3 Bft) 97,83 %
20.11.2018 19:26 4,5 C 3,9 C 3,3 C 77 % 1006,1 hPa 0,0 l/m 0 min 0 min 0 W/m 16,1 km/h (3 Bft) 97,87 %
20.11.2018 19:28 4,5 C 3,9 C 3,3 C 77 % 1006,1 hPa 0,0 l/m 0 min 0 min 0 W/m 19,3 km/h (3 Bft) 97,87 %
20.11.2018 19:30 4,5 C 3,9 C 3,3 C 77 % 1006,1 hPa 0,0 l/m 0 min 0 min 0 W/m 19,3 km/h (3 Bft) 97,87 %
20.11.2018 19:32 4,4 C 3,9 C 3,3 C 77 % 1006,1 hPa 0,0 l/m 0 min 0 min 0 W/m 22,5 km/h (4 Bft) 95,74 %
20.11.2018 19:34 4,4 C 3,9 C 3,3 C 77 % 1006,1 hPa 0,0 l/m 0 min 0 min 0 W/m 25,7 km/h (4 Bft) 97,87 %
20.11.2018 19:36 4,4 C 3,9 C 3,3 C 78 % 1006,1 hPa 0,0 l/m 0 min 0 min 0 W/m 22,5 km/h (4 Bft) 95,65 %
20.11.2018 19:38 4,4 C 3,9 C 3,3 C 78 % 1006,1 hPa 0,0 l/m 0 min 0 min 0 W/m 19,3 km/h (3 Bft) 97,87 %
20.11.2018 19:40 4,4 C 3,9 C 3,3 C 78 % 1006,2 hPa 0,0 l/m 0 min 0 min 0 W/m 16,1 km/h (3 Bft) 95,74 %
20.11.2018 19:42 4,4 C 3,9 C 3,3 C 78 % 1006,2 hPa 0,0 l/m 0 min 0 min 0 W/m 16,1 km/h (3 Bft) 97,87 %
20.11.2018 19:44 4,4 C 3,9 C 3,3 C 78 % 1006,2 hPa 0,0 l/m 0 min 0 min 0 W/m 16,1 km/h (3 Bft) 97,87 %
20.11.2018 19:46 4,4 C 3,9 C 3,3 C 78 % 1006,1 hPa 0,0 l/m 0 min 0 min 0 W/m 25,7 km/h (4 Bft) 97,87 %
20.11.2018 19:48 4,4 C 3,9 C 3,3 C 78 % 1006,2 hPa 0,0 l/m 0 min 0 min 0 W/m 16,1 km/h (3 Bft) 95,65 %
20.11.2018 19:50 4,4 C 3,9 C 3,3 C 78 % 1006,1 hPa 0,0 l/m 0 min 0 min 0 W/m 12,9 km/h (3 Bft) 95,74 %
20.11.2018 19:52 4,4 C 3,9 C 3,3 C 78 % 1006,1 hPa 0,0 l/m 0 min 0 min 0 W/m 16,1 km/h (3 Bft) 97,87 %
20.11.2018 19:54 4,4 C 3,9 C 3,3 C 78 % 1006,2 hPa 0,0 l/m 0 min 0 min 0 W/m 19,3 km/h (3 Bft) 97,87 %
20.11.2018 19:56 4,4 C 3,9 C 3,3 C 78 % 1006,3 hPa 0,0 l/m 0 min 0 min 0 W/m 22,5 km/h (4 Bft) 97,87 %
20.11.2018 19:58 4,4 C 3,9 C 3,3 C 79 % 1006,2 hPa 0,0 l/m 0 min 0 min 0 W/m 12,9 km/h (3 Bft) 97,87 %
20.11.2018 20:00 4,3 C 3,9 C 3,3 C 79 % 1006,2 hPa 0,0 l/m 0 min 0 min 0 W/m 12,9 km/h (3 Bft) 97,83 %
20.11.2018 20:02 4,3 C 3,9 C 3,3 C 79 % 1006,2 hPa 0,0 l/m 0 min 0 min 0 W/m 12,9 km/h (3 Bft) 97,87 %
20.11.2018 20:04 4,3 C 3,9 C 3,3 C 79 % 1006,2 hPa 0,0 l/m 0 min 0 min 0 W/m 16,1 km/h (3 Bft) 97,87 %
20.11.2018 20:06 4,3 C 3,9 C 3,3 C 79 % 1006,1 hPa 0,0 l/m 0 min 0 min 0 W/m 12,9 km/h (3 Bft) 89,36 %
20.11.2018 20:08 4,3 C 3,9 C 3,3 C 79 % 1006,1 hPa 0,0 l/m 0 min 0 min 0 W/m 22,5 km/h (4 Bft) 97,87 %
20.11.2018 20:10 4,3 C 3,9 C 3,3 C 79 % 1006,1 hPa 0,0 l/m 0 min 0 min 0 W/m 22,5 km/h (4 Bft) 97,87 %
20.11.2018 20:12 4,3 C 3,9 C 3,3 C 79 % 1006,3 hPa 0,0 l/m 0 min 0 min 0 W/m 29,0 km/h (5 Bft) 93,48 %
20.11.2018 20:14 4,3 C 3,9 C 3,3 C 79 % 1006,3 hPa 0,0 l/m 0 min 0 min 0 W/m 12,9 km/h (3 Bft) 97,87 %
20.11.2018 20:16 4,3 C 3,9 C 3,3 C 79 % 1006,3 hPa 0,0 l/m 0 min 0 min 0 W/m 12,9 km/h (3 Bft) 95,74 %
20.11.2018 20:18 4,3 C 3,9 C 3,3 C 79 % 1006,3 hPa 0,0 l/m 0 min 0 min 0 W/m 12,9 km/h (3 Bft) 100,00 %
20.11.2018 20:20 4,3 C 3,9 C 3,3 C 79 % 1006,4 hPa 0,0 l/m 0 min 0 min 0 W/m 9,7 km/h (2 Bft) 100,00 %
20.11.2018 20:22 4,3 C 3,9 C 3,3 C 79 % 1006,4 hPa 0,0 l/m 0 min 0 min 0 W/m 12,9 km/h (3 Bft) 97,83 %
20.11.2018 20:24 4,3 C 3,9 C 3,3 C 79 % 1006,5 hPa 0,0 l/m 0 min 0 min 0 W/m 16,1 km/h (3 Bft) 100,00 %
20.11.2018 20:26 4,3 C 3,9 C 3,3 C 79 % 1006,5 hPa 0,0 l/m 0 min 0 min 0 W/m 12,9 km/h (3 Bft) 95,74 %
20.11.2018 20:28 4,3 C 3,9 C 3,3 C 79 % 1006,6 hPa 0,0 l/m 0 min 0 min 0 W/m 29,0 km/h (5 Bft) 97,87 %
20.11.2018 20:30 4,3 C 3,9 C 3,3 C 79 % 1006,6 hPa 0,0 l/m 0 min 0 min 0 W/m 29,0 km/h (5 Bft) 97,87 %
20.11.2018 20:32 4,3 C 3,9 C 3,3 C 79 % 1006,7 hPa 0,0 l/m 0 min 0 min 0 W/m 9,7 km/h (2 Bft) 95,74 %
20.11.2018 20:34 4,3 C 3,9 C 3,3 C 79 % 1006,6 hPa 0,0 l/m 0 min 0 min 0 W/m 16,1 km/h (3 Bft) 97,83 %
20.11.2018 20:36 4,3 C 3,9 C 3,3 C 79 % 1006,7 hPa 0,0 l/m 0 min 0 min 0 W/m 12,9 km/h (3 Bft) 96,61 %
20.11.2018 20:38 4,3 C 3,9 C 3,3 C 79 % 1006,8 hPa 0,0 l/m 0 min 0 min 0 W/m 25,7 km/h (4 Bft) 97,14 %
20.11.2018 20:40 4,3 C 3,9 C 3,3 C 79 % 1006,8 hPa 0,0 l/m 0 min 0 min 0 W/m 25,7 km/h (4 Bft) 97,87 %
20.11.2018 20:42 4,3 C 3,9 C 3,3 C 79 % 1006,7 hPa 0,0 l/m 0 min 0 min 0 W/m 25,7 km/h (4 Bft) 97,87 %
20.11.2018 20:44 4,3 C 3,9 C 3,3 C 79 % 1006,8 hPa 0,0 l/m 0 min 0 min 0 W/m 22,5 km/h (4 Bft) 97,87 %
20.11.2018 20:46 4,3 C 3,9 C 3,3 C 79 % 1006,8 hPa 0,0 l/m 0 min 0 min 0 W/m 12,9 km/h (3 Bft) 95,65 %
20.11.2018 20:48 4,3 C 3,9 C 3,3 C 79 % 1006,8 hPa 0,0 l/m 0 min 0 min 0 W/m 12,9 km/h (3 Bft) 95,74 %
20.11.2018 20:50 4,3 C 3,9 C 3,3 C 79 % 1006,9 hPa 0,0 l/m 0 min 0 min 0 W/m 12,9 km/h (3 Bft) 95,74 %
20.11.2018 20:52 4,3 C 3,9 C 3,3 C 80 % 1006,9 hPa 0,0 l/m 0 min 0 min 0 W/m 22,5 km/h (4 Bft) 95,74 %
20.11.2018 20:54 4,2 C 3,9 C 3,3 C 80 % 1006,9 hPa 0,0 l/m 0 min 0 min 0 W/m 19,3 km/h (3 Bft) 95,74 %
20.11.2018 20:56 4,2 C 3,9 C 3,3 C 80 % 1006,9 hPa 0,0 l/m 0 min 0 min 0 W/m 19,3 km/h (3 Bft) 95,74 %
20.11.2018 20:58 4,2 C 3,9 C 3,3 C 80 % 1006,9 hPa 0,0 l/m 0 min 0 min 0 W/m 16,1 km/h (3 Bft) 93,48 %
20.11.2018 21:00 4,2 C 3,9 C 3,3 C 80 % 1006,8 hPa 0,0 l/m 0 min 0 min 0 W/m 19,3 km/h (3 Bft) 95,74 %
20.11.2018 21:02 4,2 C 3,9 C 3,3 C 80 % 1006,8 hPa 0,0 l/m 0 min 0 min 0 W/m 12,9 km/h (3 Bft) 95,74 %
20.11.2018 21:04 4,2 C 3,9 C 3,3 C 80 % 1006,8 hPa 0,0 l/m 0 min 0 min 0 W/m 16,1 km/h (3 Bft) 93,62 %
20.11.2018 21:06 4,2 C 3,3 C 3,3 C 80 % 1006,8 hPa 0,0 l/m 0 min 0 min 0 W/m 12,9 km/h (3 Bft) 95,74 %
20.11.2018 21:08 4,2 C 3,3 C 2,8 C 80 % 1006,8 hPa 0,0 l/m 0 min 0 min 0 W/m 19,3 km/h (3 Bft) 95,74 %
20.11.2018 21:10 4,2 C 3,3 C 2,8 C 80 % 1006,9 hPa 0,0 l/m 0 min 0 min 0 W/m 16,1 km/h (3 Bft) 95,65 %
20.11.2018 21:12 4,2 C 3,3 C 2,8 C 80 % 1006,9 hPa 0,0 l/m 0 min 0 min 0 W/m 12,9 km/h (3 Bft) 95,74 %
20.11.2018 21:14 4,1 C 3,3 C 2,8 C 80 % 1006,9 hPa 0,0 l/m 0 min 0 min 0 W/m 16,1 km/h (3 Bft) 97,87 %
20.11.2018 21:16 4,1 C 3,3 C 2,8 C 80 % 1006,9 hPa 0,0 l/m 0 min 0 min 0 W/m 16,1 km/h (3 Bft) 95,74 %
20.11.2018 21:18 4,1 C 3,3 C 2,8 C 80 % 1006,8 hPa 0,0 l/m 0 min 0 min 0 W/m 12,9 km/h (3 Bft) 97,87 %
20.11.2018 21:20 4,1 C 3,3 C 2,8 C 80 % 1006,9 hPa 0,0 l/m 0 min 0 min 0 W/m 12,9 km/h (3 Bft) 97,83 %
20.11.2018 21:22 4,1 C 3,3 C 2,8 C 80 % 1006,9 hPa 0,0 l/m 0 min 0 min 0 W/m 12,9 km/h (3 Bft) 97,87 %
20.11.2018 21:24 4,1 C 3,3 C 2,8 C 80 % 1006,9 hPa 0,0 l/m 0 min 0 min 0 W/m 12,9 km/h (3 Bft) 95,74 %
20.11.2018 21:26 4,1 C 3,3 C 2,8 C 80 % 1007,0 hPa 0,0 l/m 0 min 0 min 0 W/m 16,1 km/h (3 Bft) 97,87 %
20.11.2018 21:28 4,1 C 3,9 C 2,8 C 80 % 1006,9 hPa 0,0 l/m 0 min 0 min 0 W/m 22,5 km/h (4 Bft) 97,87 %
20.11.2018 21:30 4,1 C 3,3 C 2,8 C 80 % 1007,0 hPa 0,0 l/m 0 min 0 min 0 W/m 16,1 km/h (3 Bft) 97,87 %
20.11.2018 21:32 4,1 C 3,3 C 2,8 C 80 % 1007,0 hPa 0,0 l/m 0 min 0 min 0 W/m 16,1 km/h (3 Bft) 97,87 %
20.11.2018 21:34 4,1 C 3,3 C 2,8 C 80 % 1007,1 hPa 0,0 l/m 0 min 0 min 0 W/m 12,9 km/h (3 Bft) 97,83 %
20.11.2018 21:36 4,1 C 3,3 C 2,8 C 81 % 1007,1 hPa 0,0 l/m 0 min 0 min 0 W/m 19,3 km/h (3 Bft) 100,00 %
20.11.2018 21:38 4,1 C 3,3 C 2,8 C 81 % 1007,1 hPa 0,0 l/m 0 min 0 min 0 W/m 19,3 km/h (3 Bft) 100,00 %
20.11.2018 21:40 4,0 C 3,3 C 2,8 C 81 % 1007,2 hPa 0,0 l/m 0 min 0 min 0 W/m 9,7 km/h (2 Bft) 97,87 %
20.11.2018 21:42 4,0 C 3,3 C 2,8 C 81 % 1007,0 hPa 0,0 l/m 0 min 0 min 0 W/m 19,3 km/h (3 Bft) 100,00 %
20.11.2018 21:44 4,0 C 3,3 C 2,8 C 81 % 1007,2 hPa 0,0 l/m 0 min 0 min 0 W/m 22,5 km/h (4 Bft) 100,00 %
20.11.2018 21:46 3,9 C 3,3 C 2,8 C 81 % 1007,1 hPa 0,0 l/m 0 min 0 min 0 W/m 19,3 km/h (3 Bft) 100,00 %
20.11.2018 21:48 3,9 C 3,3 C 2,8 C 81 % 1007,1 hPa 0,0 l/m 0 min 0 min 0 W/m 22,5 km/h (4 Bft) 100,00 %
20.11.2018 21:50 3,9 C 3,3 C 2,8 C 81 % 1007,2 hPa 0,0 l/m 0 min 0 min 0 W/m 16,1 km/h (3 Bft) 97,87 %
20.11.2018 21:52 3,9 C 3,3 C 2,8 C 81 % 1007,2 hPa 0,0 l/m 0 min 0 min 0 W/m 22,5 km/h (4 Bft) 93,62 %
20.11.2018 21:54 3,9 C 3,3 C 2,8 C 81 % 1007,1 hPa 0,0 l/m 0 min 0 min 0 W/m 22,5 km/h (4 Bft) 97,87 %
20.11.2018 21:56 3,8 C 3,3 C 2,8 C 81 % 1007,2 hPa 0,0 l/m 0 min 0 min 0 W/m 16,1 km/h (3 Bft) 97,83 %
20.11.2018 21:58 3,8 C 2,8 C 2,2 C 81 % 1007,1 hPa 0,0 l/m 0 min 0 min 0 W/m 16,1 km/h (3 Bft) 100,00 %
20.11.2018 22:00 3,8 C 2,8 C 2,2 C 81 % 1007,2 hPa 0,0 l/m 0 min 0 min 0 W/m 9,7 km/h (2 Bft) 100,00 %
20.11.2018 22:02 3,7 C 2,8 C 2,2 C 81 % 1007,3 hPa 0,0 l/m 0 min 0 min 0 W/m 22,5 km/h (4 Bft) 100,00 %
20.11.2018 22:04 3,7 C 2,8 C 2,2 C 81 % 1007,2 hPa 0,0 l/m 0 min 0 min 0 W/m 9,7 km/h (2 Bft) 100,00 %
20.11.2018 22:06 3,7 C 2,8 C 2,2 C 81 % 1007,2 hPa 0,0 l/m 0 min 0 min 0 W/m 16,1 km/h (3 Bft) 100,00 %
20.11.2018 22:08 3,6 C 2,8 C 2,2 C 81 % 1007,2 hPa 0,0 l/m 0 min 0 min 0 W/m 9,7 km/h (2 Bft) 100,00 %
20.11.2018 22:10 3,6 C 2,8 C 2,2 C 82 % 1007,3 hPa 0,0 l/m 0 min 0 min 0 W/m 12,9 km/h (3 Bft) 100,00 %
20.11.2018 22:12 3,5 C 2,8 C 2,2 C 82 % 1007,3 hPa 0,0 l/m 0 min 0 min 0 W/m 16,1 km/h (3 Bft) 100,00 %
20.11.2018 22:14 3,4 C 2,2 C 2,2 C 82 % 1007,5 hPa 0,0 l/m 0 min 0 min 0 W/m 12,9 km/h (3 Bft) 100,00 %
20.11.2018 22:16 3,4 C 2,2 C 2,2 C 82 % 1007,5 hPa 0,0 l/m 0 min 0 min 0 W/m 9,7 km/h (2 Bft) 100,00 %
20.11.2018 22:18 3,3 C 2,2 C 2,2 C 82 % 1007,6 hPa 0,0 l/m 0 min 0 min 0 W/m 16,1 km/h (3 Bft) 100,00 %
20.11.2018 22:20 3,3 C 2,2 C 2,2 C 82 % 1007,5 hPa 0,0 l/m 0 min 0 min 0 W/m 12,9 km/h (3 Bft) 100,00 %
20.11.2018 22:22 3,2 C 2,2 C 1,7 C 83 % 1007,5 hPa 0,0 l/m 0 min 0 min 0 W/m 9,7 km/h (2 Bft) 100,00 %
20.11.2018 22:24 3,2 C 2,2 C 1,7 C 83 % 1007,3 hPa 0,0 l/m 0 min 0 min 0 W/m 9,7 km/h (2 Bft) 100,00 %
20.11.2018 22:26 3,2 C 2,2 C 1,7 C 83 % 1007,5 hPa 0,0 l/m 0 min 0 min 0 W/m 9,7 km/h (2 Bft) 100,00 %
20.11.2018 22:28 3,2 C 2,2 C 1,7 C 83 % 1007,5 hPa 0,0 l/m 0 min 0 min 0 W/m 6,4 km/h (2 Bft) 100,00 %
20.11.2018 22:30 3,1 C 2,2 C 1,7 C 83 % 1007,4 hPa 0,0 l/m 0 min 0 min 0 W/m 6,4 km/h (2 Bft) 100,00 %
20.11.2018 22:32 3,1 C 2,2 C 1,7 C 83 % 1007,4 hPa 0,0 l/m 0 min 0 min 0 W/m 9,7 km/h (2 Bft) 100,00 %
20.11.2018 22:34 3,1 C 2,2 C 1,7 C 83 % 1007,4 hPa 0,0 l/m 0 min 0 min 0 W/m 12,9 km/h (3 Bft) 100,00 %
20.11.2018 22:36 3,1 C 2,2 C 1,7 C 83 % 1007,5 hPa 0,0 l/m 0 min 0 min 0 W/m 6,4 km/h (2 Bft) 100,00 %
20.11.2018 22:38 3,0 C 2,2 C 1,7 C 83 % 1007,6 hPa 0,0 l/m 0 min 0 min 0 W/m 9,7 km/h (2 Bft) 100,00 %
20.11.2018 22:40 3,0 C 2,2 C 1,7 C 83 % 1007,6 hPa 0,0 l/m 0 min 0 min 0 W/m 9,7 km/h (2 Bft) 100,00 %
20.11.2018 22:42 3,0 C 2,2 C 1,7 C 84 % 1007,6 hPa 0,0 l/m 0 min 0 min 0 W/m 9,7 km/h (2 Bft) 100,00 %
20.11.2018 22:44 2,9 C 2,2 C 1,7 C 84 % 1007,7 hPa 0,0 l/m 0 min 0 min 0 W/m 12,9 km/h (3 Bft) 100,00 %
20.11.2018 22:46 2,9 C 2,2 C 1,7 C 84 % 1007,6 hPa 0,0 l/m 0 min 0 min 0 W/m 9,7 km/h (2 Bft) 100,00 %
20.11.2018 22:48 2,9 C 2,2 C 1,7 C 84 % 1007,8 hPa 0,0 l/m 0 min 0 min 0 W/m 9,7 km/h (2 Bft) 100,00 %
20.11.2018 22:50 2,9 C 2,2 C 1,7 C 84 % 1007,8 hPa 0,0 l/m 0 min 0 min 0 W/m 9,7 km/h (2 Bft) 95,74 %
20.11.2018 22:52 2,9 C 2,2 C 1,7 C 84 % 1007,8 hPa 0,0 l/m 0 min 0 min 0 W/m 9,7 km/h (2 Bft) 100,00 %
20.11.2018 22:54 2,9 C 2,2 C 1,7 C 84 % 1007,8 hPa 0,0 l/m 0 min 0 min 0 W/m 12,9 km/h (3 Bft) 100,00 %
20.11.2018 22:56 2,9 C 2,2 C 1,7 C 84 % 1007,9 hPa 0,0 l/m 0 min 0 min 0 W/m 9,7 km/h (2 Bft) 97,87 %
20.11.2018 22:58 2,9 C 2,8 C 1,7 C 84 % 1007,9 hPa 0,0 l/m 0 min 0 min 0 W/m 9,7 km/h (2 Bft) 97,87 %
20.11.2018 23:00 2,9 C 2,8 C 2,2 C 85 % 1007,9 hPa 0,0 l/m 0 min 0 min 0 W/m 12,9 km/h (3 Bft) 97,87 %
20.11.2018 23:02 3,0 C 2,8 C 2,2 C 84 % 1008,0 hPa 0,0 l/m 0 min 0 min 0 W/m 9,7 km/h (2 Bft) 100,00 %
20.11.2018 23:04 3,0 C 2,8 C 2,2 C 85 % 1008,0 hPa 0,0 l/m 0 min 0 min 0 W/m 16,1 km/h (3 Bft) 100,00 %
20.11.2018 23:06 3,1 C 2,8 C 2,2 C 85 % 1008,0 hPa 0,0 l/m 0 min 0 min 0 W/m 9,7 km/h (2 Bft) 100,00 %
20.11.2018 23:08 3,1 C 2,8 C 2,2 C 85 % 1008,0 hPa 0,0 l/m 0 min 0 min 0 W/m 12,9 km/h (3 Bft) 97,14 %
20.11.2018 23:10 3,1 C 2,8 C 2,2 C 85 % 1008,0 hPa 0,0 l/m 0 min 0 min 0 W/m 12,9 km/h (3 Bft) 95,74 %
20.11.2018 23:12 3,1 C 2,8 C 2,2 C 85 % 1008,0 hPa 0,0 l/m 0 min 0 min 0 W/m 9,7 km/h (2 Bft) 93,62 %
20.11.2018 23:14 3,1 C 2,8 C 2,2 C 84 % 1008,0 hPa 0,0 l/m 0 min 0 min 0 W/m 9,7 km/h (2 Bft) 93,62 %
20.11.2018 23:16 3,2 C 2,8 C 2,2 C 84 % 1008,1 hPa 0,0 l/m 0 min 0 min 0 W/m 9,7 km/h (2 Bft) 95,74 %
20.11.2018 23:18 3,2 C 2,8 C 2,2 C 84 % 1008,0 hPa 0,0 l/m 0 min 0 min 0 W/m 16,1 km/h (3 Bft) 95,65 %
20.11.2018 23:20 3,2 C 2,8 C 2,2 C 84 % 1007,9 hPa 0,0 l/m 0 min 0 min 0 W/m 9,7 km/h (2 Bft) 93,62 %
20.11.2018 23:22 3,2 C 2,8 C 2,2 C 84 % 1008,0 hPa 0,0 l/m 0 min 0 min 0 W/m 9,7 km/h (2 Bft) 95,74 %
20.11.2018 23:24 3,2 C 2,8 C 2,2 C 84 % 1008,0 hPa 0,0 l/m 0 min 0 min 0 W/m 16,1 km/h (3 Bft) 91,49 %
20.11.2018 23:26 3,2 C 2,8 C 2,2 C 84 % 1008,0 hPa 0,0 l/m 0 min 0 min 0 W/m 12,9 km/h (3 Bft) 93,62 %
20.11.2018 23:28 3,2 C 2,8 C 2,2 C 84 % 1008,0 hPa 0,0 l/m 0 min 0 min 0 W/m 12,9 km/h (3 Bft) 95,74 %
20.11.2018 23:30 3,3 C 2,8 C 2,2 C 84 % 1008,0 hPa 0,0 l/m 0 min 0 min 0 W/m 25,7 km/h (4 Bft) 95,65 %
20.11.2018 23:32 3,3 C 2,8 C 2,2 C 84 % 1008,0 hPa 0,0 l/m 0 min 0 min 0 W/m 12,9 km/h (3 Bft) 95,83 %
20.11.2018 23:34 3,3 C 2,8 C 2,2 C 84 % 1008,1 hPa 0,0 l/m 0 min 0 min 0 W/m 16,1 km/h (3 Bft) 95,74 %
20.11.2018 23:36 3,3 C 2,8 C 2,2 C 84 % 1008,2 hPa 0,0 l/m 0 min 0 min 0 W/m 22,5 km/h (4 Bft) 95,74 %
20.11.2018 23:38 3,3 C 2,8 C 2,2 C 84 % 1008,1 hPa 0,0 l/m 0 min 0 min 0 W/m 12,9 km/h (3 Bft) 93,62 %
20.11.2018 23:40 3,4 C 2,8 C 2,2 C 84 % 1008,1 hPa 0,0 l/m 0 min 0 min 0 W/m 9,7 km/h (2 Bft) 93,62 %
20.11.2018 23:42 3,4 C 2,8 C 2,2 C 84 % 1008,1 hPa 0,0 l/m 0 min 0 min 0 W/m 12,9 km/h (3 Bft) 93,48 %
20.11.2018 23:44 3,4 C 2,8 C 2,2 C 84 % 1008,1 hPa 0,0 l/m 0 min 0 min 0 W/m 9,7 km/h (2 Bft) 93,62 %
20.11.2018 23:46 3,4 C 3,3 C 2,2 C 84 % 1008,1 hPa 0,0 l/m 0 min 0 min 0 W/m 12,9 km/h (3 Bft) 93,62 %
20.11.2018 23:48 3,4 C 3,3 C 2,2 C 84 % 1008,1 hPa 0,0 l/m 0 min 0 min 0 W/m 12,9 km/h (3 Bft) 93,62 %
20.11.2018 23:50 3,5 C 3,3 C 2,2 C 84 % 1008,1 hPa 0,0 l/m 0 min 0 min 0 W/m 9,7 km/h (2 Bft) 91,49 %
20.11.2018 23:52 3,5 C 3,3 C 2,8 C 84 % 1008,1 hPa 0,0 l/m 0 min 0 min 0 W/m 12,9 km/h (3 Bft) 91,49 %
20.11.2018 23:54 3,5 C 3,3 C 2,8 C 84 % 1008,0 hPa 0,0 l/m 0 min 0 min 0 W/m 16,1 km/h (3 Bft) 95,65 %
20.11.2018 23:56 3,6 C 3,3 C 2,8 C 84 % 1008,0 hPa 0,0 l/m 0 min 0 min 0 W/m 16,1 km/h (3 Bft) 93,62 %
20.11.2018 23:58 3,6 C 3,3 C 2,8 C 84 % 1008,0 hPa 0,0 l/m 0 min 0 min 0 W/m 16,1 km/h (3 Bft) 95,74 %
_ Min-Zeit 04:06 03:40 00:24 13:00 15:36 - - - - 00:30 01:54
Minimum _ 1,8 C 1,1 C 1,1 C 74 % 1005,3 hPa - - - - 6,4 km/h (2 Bft) 89,36 %
_ Max-Zeit 13:12 13:04 12:22 00:52 00:00 00:00 00:00 00:00 12:56 19:02 00:00
Maximum _ 4,9 C 5,6 C 4,4 C 85 % 1011,6 hPa 0,0 l/m 0 min 0 min 144 W/m 35,4 km/h
O-SO (5 Bft)
100,00 %
Durchschnitt _ 3,4 C 3,0 C 2,5 C 80 % 1007,5 hPa #0,0 l/m #0 min. #0 min. 53 W/m 15,0 km/h (3 Bft) 97,51 %
© 2018 W. Hausmann